GFSGL_sfc_30mbdewp_027.txt.gz
Dewpoint
32 30 29 28 26 26 26 25 24 26 27 26 25 26 26 25 26 30 34 34 33 32 27 26 28 27 25 24 22 18 17 16 15 15 15 17 17 18 18 19 20 20 20
29 30 30 26 24 25 25 23 25 27 28 27 25 25 25 25 27 32 30 33 32 29 27 26 25 24 23 18 17 15 16 15 15 14 15 17 18 18 19 18 18 17 19
30 31 25 24 24 25 25 24 26 27 27 26 25 25 25 26 26 28 30 29 28 27 27 26 24 21 18 16 16 16 15 14 15 17 18 18 17 16 17 18 17 16 18
31 25 22 22 24 26 24 24 25 27 27 26 25 25 26 27 26 26 26 28 28 26 25 22 18 17 16 17 16 16 15 15 16 16 16 17 16 19 19 18 20 20 17
28 23 21 23 26 25 23 25 27 28 26 26 25 24 27 27 26 28 26 24 23 22 20 16 15 16 17 17 16 15 16 16 16 16 17 17 19 16 16 16 18 16 16
26 24 22 24 25 22 22 26 27 24 24 25 25 25 28 26 25 24 23 22 20 17 16 15 15 15 15 16 18 18 18 16 18 21 18 14 13 16 22 23 20 18 14
24 22 23 24 23 21 22 22 22 23 25 25 25 26 28 27 23 22 22 19 19 18 17 16 16 13 15 16 17 16 17 19 20 19 19 20 22 17 17 19 18 20 19
22 22 22 20 19 21 21 21 21 23 24 24 24 27 27 26 23 21 21 20 19 19 19 18 16 15 16 18 16 15 13 12 12 13 15 16 16 16 16 18 18 16 18
22 21 18 18 21 22 20 20 21 23 24 25 24 26 27 26 22 20 19 20 20 20 19 17 17 14 17 17 15 14 13 12 13 14 13 16 19 20 21 21 23 20 20
20 19 18 21 21 20 21 21 23 24 24 23 23 25 25 25 22 20 19 21 22 21 19 17 16 15 16 15 15 14 14 14 11 12 15 17 17 18 20 23 24 24 21
20 22 22 20 20 22 22 23 24 24 25 26 28 27 26 26 25 21 20 20 22 21 19 17 17 17 15 14 15 15 16 15 14 16 18 18 19 19 19 21 23 26 25
25 25 21 21 23 23 23 24 25 25 26 26 30 29 28 27 25 23 21 20 20 20 20 19 20 18 15 15 14 14 14 15 17 16 18 17 18 20 21 22 28 31 29
25 23 22 23 24 24 24 23 23 25 26 27 27 29 27 26 28 25 23 21 20 22 21 20 18 17 14 14 12 13 16 13 12 13 17 18 19 20 21 23 25 26 32
24 24 24 24 24 25 25 22 24 27 28 27 26 26 26 25 24 26 26 24 23 24 23 21 19 18 17 17 16 14 14 13 10 11 15 17 20 19 19 22 24 25 27
23 23 25 26 27 25 24 24 24 26 28 26 27 27 28 27 25 25 26 25 25 24 20 19 18 17 16 15 14 13 13 13 11 10 12 13 16 17 18 20 22 23 23
25 26 28 28 27 26 25 26 26 26 26 25 25 25 30 26 26 25 24 22 22 21 18 18 18 19 19 16 14 13 14 13 13 12 11 11 11 12 15 19 19 20 21
28 26 26 26 26 25 27 28 27 27 27 26 25 25 26 27 27 27 26 24 23 21 19 18 19 20 19 16 14 12 12 12 14 13 13 13 13 12 14 13 16 18 18
27 27 27 26 28 28 28 29 29 27 28 29 31 27 27 27 27 27 26 25 23 24 19 18 17 19 19 16 14 13 14 15 15 13 13 15 15 14 12 11 11 14 14
27 27 28 29 29 29 28 29 28 28 27 28 29 28 29 27 27 27 25 24 22 22 22 21 21 19 18 18 17 18 18 17 16 15 15 15 15 16 13 11 12 12 12
26 27 27 27 27 27 26 26 28 28 26 28 29 28 26 28 28 26 26 26 25 24 23 22 21 18 19 20 20 20 18 18 17 16 15 15 14 14 15 12 11 11 10
28 29 29 28 28 28 28 27 27 28 28 28 29 31 27 26 26 28 26 27 27 25 25 24 24 23 23 22 21 20 19 18 17 16 15 15 13 14 15 14 12 10 9
30 31 30 29 29 29 29 29 28 27 27 27 29 31 27 26 26 26 26 27 27 28 28 27 25 25 24 22 21 21 20 19 18 16 16 15 13 14 15 15 13 11 10
31 31 31 28 28 28 28 30 28 28 29 29 29 30 31 30 29 28 27 27 29 29 29 28 27 26 26 26 25 22 20 19 18 18 16 15 13 14 15 14 13 11 10
31 31 30 27 28 28 29 29 29 29 29 29 30 30 30 31 31 30 30 30 30 30 31 31 28 26 25 26 26 24 22 20 19 17 15 15 13 13 15 14 11 13 11
33 32 31 28 29 29 29 29 30 29 29 29 29 29 29 30 30 30 31 31 31 31 31 31 30 29 27 26 25 24 22 20 18 17 17 15 13 13 12 12 11 10 13
31 31 31 30 29 28 27 28 28 28 27 26 26 27 27 27 28 28 29 29 29 30 31 31 31 30 29 28 26 24 22 20 18 16 16 14 13 13 14 13 11 10 11

GFSGL_sfc_30mbdewp_030.txt.gz
Dewpoint
36 36 34 31 31 29 31 30 28 28 28 29 29 27 27 28 29 30 31 30 32 34 34 34 34 30 29 28 27 24 21 20 18 17 17 19 19 21 21 22 21 20 20
37 33 33 32 31 31 29 29 28 28 29 29 29 27 27 28 29 29 31 31 31 31 30 30 28 26 25 23 21 20 20 18 17 16 18 18 20 20 20 20 19 20 20
33 31 31 32 32 27 29 28 27 28 30 30 28 28 28 28 28 29 29 29 30 30 29 27 26 23 19 20 19 17 18 17 18 17 17 18 19 19 19 21 21 21 22
33 32 33 32 29 28 28 27 27 28 29 29 28 28 29 28 28 28 27 28 29 26 26 26 21 19 18 17 16 17 16 17 17 17 17 17 17 19 21 19 20 21 21
33 32 29 30 26 28 28 27 28 30 29 28 27 29 28 28 27 28 26 24 25 23 23 20 18 17 16 18 16 16 18 18 18 16 16 18 18 16 15 23 25 22 21
33 32 29 30 27 27 26 26 28 29 28 27 28 27 28 27 26 24 22 22 22 22 20 19 18 18 19 20 21 19 18 18 18 19 19 19 18 20 23 18 18 18 17
33 30 31 25 25 25 23 23 24 25 27 27 28 28 28 27 26 24 21 20 21 23 20 20 19 16 21 19 18 18 17 16 18 19 18 21 21 17 17 16 16 18 20
31 28 26 24 22 21 23 25 25 25 26 28 27 28 29 27 26 23 21 20 22 22 22 21 19 18 20 18 18 16 16 15 15 15 15 15 15 18 19 19 19 19 21
25 26 26 20 21 22 24 24 24 24 26 27 27 26 27 26 25 23 20 21 23 23 22 22 20 18 20 18 16 16 16 15 15 14 14 15 18 21 22 22 23 22 21
26 25 26 23 23 25 24 24 26 26 26 27 28 27 26 28 25 23 21 22 23 24 23 21 18 17 17 17 16 17 16 17 15 14 16 19 19 21 22 23 27 24 24
28 27 25 28 29 25 25 25 26 27 28 28 29 28 29 28 25 24 22 21 22 23 22 21 21 19 20 18 15 17 17 17 16 17 18 19 21 21 21 22 23 25 25
31 31 30 27 26 25 25 26 26 26 28 28 30 29 30 28 27 26 24 22 22 20 22 23 23 21 19 17 16 16 15 17 18 16 16 18 19 20 21 22 23 25 26
30 28 28 27 26 25 26 26 25 26 26 28 29 29 30 29 29 27 25 24 22 21 23 24 22 21 20 18 18 15 15 17 17 13 14 16 18 20 21 22 22 24 25
30 30 28 27 26 27 27 27 26 26 27 28 29 29 29 30 29 31 27 25 23 23 23 25 24 21 19 18 18 20 19 18 15 14 13 16 17 17 18 21 20 22 23
28 26 27 28 29 29 28 26 26 27 27 27 28 29 30 30 28 27 30 30 28 27 24 21 20 21 20 18 18 17 16 17 15 15 14 15 15 15 16 18 20 21 20
26 27 29 29 29 28 27 26 27 26 26 27 26 26 29 30 28 26 26 25 23 22 20 19 20 20 21 20 18 18 16 15 16 15 16 16 17 16 15 16 18 20 19
28 29 29 28 28 27 28 27 27 29 30 30 28 27 26 26 28 27 27 26 25 23 21 20 20 21 22 21 18 17 14 15 15 16 15 15 17 17 17 16 15 16 16
29 29 28 29 30 29 28 29 29 28 28 28 30 28 28 27 27 27 27 28 26 25 24 21 21 21 21 21 19 17 17 18 17 18 15 17 17 16 17 16 14 15 15
28 29 29 30 30 30 29 28 28 27 28 29 30 28 30 30 29 28 28 26 24 23 24 24 22 21 22 21 19 19 19 19 18 16 15 18 17 17 16 18 14 13 14
28 28 28 29 30 29 29 29 27 27 27 27 27 27 29 31 28 27 27 26 25 24 23 24 24 23 23 22 22 22 21 20 19 19 19 16 17 15 14 17 16 12 13
29 29 30 30 30 32 31 29 29 29 29 28 27 28 29 31 29 28 28 27 26 25 25 25 25 23 24 24 23 21 22 20 19 17 17 16 16 13 15 18 16 16 12
31 31 31 31 32 31 30 29 29 29 29 29 28 27 29 31 30 28 26 26 30 29 28 27 26 25 25 24 25 23 22 21 21 19 17 17 16 14 15 17 16 15 13
31 32 32 31 30 31 29 28 28 28 28 29 29 29 29 30 30 29 28 28 28 29 29 30 30 29 27 26 26 24 23 23 22 20 18 17 16 15 16 13 16 13 11
24 26 27 28 31 30 28 27 29 28 28 30 30 29 29 30 30 31 31 31 31 31 30 31 31 30 29 29 28 26 24 23 22 20 17 16 16 15 15 15 13 13 13
24 25 26 26 29 30 30 29 28 28 29 29 28 28 27 28 29 29 30 31 31 31 30 31 31 31 30 29 29 28 25 22 22 19 17 15 15 14 13 11 12 12 11
25 27 27 27 27 27 29 28 26 25 25 25 25 25 25 23 22 22 23 22 23 25 28 30 30 30 31 30 29 29 26 23 22 19 19 16 15 14 13 14 14 11 11

GFSGL_sfc_30mbdewp_033.txt.gz
Dewpoint
38 36 33 31 30 30 30 31 30 29 29 28 30 29 27 27 29 30 30 30 31 33 33 33 32 31 30 28 24 22 20 19 16 18 19 20 19 20 20 22 22 21 21
37 36 33 32 31 30 30 33 31 29 30 30 30 28 27 28 30 30 30 30 29 31 30 29 27 26 22 22 20 18 17 18 17 17 18 18 19 20 20 20 20 20 21
35 32 32 31 30 31 31 32 30 29 30 31 30 28 28 28 29 29 29 29 30 30 29 27 27 24 20 19 17 16 17 16 17 17 17 18 18 19 19 20 21 22 22
32 31 32 32 33 31 33 29 27 29 30 30 28 28 28 30 29 28 28 28 26 25 25 24 24 20 17 16 15 15 16 17 18 18 17 17 17 19 20 18 22 23 22
32 32 33 34 33 33 30 29 29 31 30 29 28 27 30 30 29 28 26 25 24 23 22 22 19 19 19 17 16 17 19 18 18 18 17 17 18 19 19 24 20 17 17
34 34 34 33 32 30 29 25 26 27 29 30 28 29 28 28 28 26 23 22 22 21 21 21 20 19 20 21 21 21 20 18 17 18 18 18 18 22 21 18 16 16 15
36 34 34 35 32 26 26 26 26 25 26 28 28 29 29 28 27 24 22 21 20 21 22 21 20 21 20 18 18 18 16 16 18 18 16 17 15 15 16 17 18 19 19
34 31 29 26 25 27 27 26 27 29 29 28 28 29 30 28 27 26 22 20 21 22 23 22 21 20 19 18 17 16 16 17 16 16 17 15 16 17 19 20 21 21 22
29 28 28 28 28 27 29 30 31 30 27 27 29 28 28 27 28 26 21 21 22 23 23 23 22 19 20 19 17 16 16 17 16 17 16 19 20 21 22 25 23 22 21
31 29 30 30 30 29 30 31 30 27 26 28 28 28 27 27 28 26 22 21 22 23 23 22 19 18 18 18 18 15 14 15 17 17 17 18 20 21 23 22 22 21 21
31 32 32 33 31 31 30 28 26 26 27 27 29 28 29 27 27 27 25 22 22 22 23 22 21 20 21 20 19 17 16 17 18 17 18 18 19 20 21 22 22 23 22
32 33 33 31 30 30 29 28 27 27 25 26 28 29 29 29 27 27 27 25 23 21 21 21 23 24 22 21 20 19 19 19 17 16 16 14 17 17 19 21 22 23 23
32 31 30 31 31 29 28 26 26 26 26 26 26 27 29 30 29 28 28 27 24 21 21 21 23 24 22 23 22 21 20 17 15 15 14 14 14 17 19 19 20 21 23
30 31 31 31 29 28 28 28 28 26 26 26 26 27 28 28 29 29 28 27 27 24 21 22 24 24 23 21 20 20 19 18 16 16 13 13 16 16 16 17 18 19 21
30 30 27 28 28 29 29 29 27 26 26 26 26 27 27 27 29 32 29 27 25 24 22 23 24 20 19 20 20 19 19 17 16 15 13 15 16 17 16 17 17 18 19
27 27 28 28 28 28 28 28 28 27 28 29 29 28 27 29 30 30 31 29 28 28 24 22 20 17 18 19 20 19 18 16 16 14 15 16 16 16 17 17 17 16 17
26 27 27 28 28 27 28 27 27 28 29 29 29 30 30 28 28 30 29 28 27 25 21 19 18 18 17 19 21 19 17 16 15 16 16 14 15 17 16 17 16 14 14
27 28 28 28 28 28 28 28 27 25 24 24 27 29 29 29 29 28 31 30 26 26 23 21 20 19 19 20 21 20 18 16 16 16 16 13 14 17 15 15 17 14 14
28 28 29 29 29 29 29 28 28 28 27 26 27 28 29 29 29 30 30 28 24 23 23 23 22 21 21 20 21 20 17 16 16 15 15 14 16 16 15 13 17 16 13
32 30 29 29 29 30 30 29 29 28 28 28 27 26 27 27 28 29 29 28 26 24 23 23 23 23 22 23 24 24 20 18 17 16 16 17 17 15 12 11 16 16 15
29 30 30 30 31 30 30 30 30 29 28 28 28 28 29 28 28 28 26 27 26 25 24 24 23 24 24 22 22 23 22 20 19 18 18 15 14 14 11 13 16 16 15
23 22 22 22 24 25 29 31 30 29 28 27 27 28 28 27 28 29 29 28 27 27 27 26 25 25 25 24 23 22 22 21 20 18 17 16 15 14 12 15 14 15 13
20 21 22 22 23 24 25 25 27 29 28 27 26 27 28 28 29 29 30 30 30 30 30 29 28 28 27 26 26 25 23 21 20 19 18 16 16 15 13 15 12 14 13
23 22 20 20 23 24 24 25 28 28 27 27 27 29 27 28 28 28 29 30 31 31 31 30 30 30 30 29 28 27 26 24 23 21 19 17 16 14 13 13 13 12 11
17 17 18 18 18 18 19 24 26 28 27 26 24 24 23 22 21 22 22 22 22 23 22 25 30 31 30 30 29 28 27 27 25 22 19 16 15 14 13 13 11 11 10
13 14 11 12 13 15 15 17 17 19 20 20 19 19 17 18 19 18 19 19 18 17 19 20 21 22 27 30 30 29 28 27 25 22 19 17 14 12 12 11 10 12 10

GFSGL_sfc_30mbdewp_036.txt.gz
Dewpoint
37 36 35 31 31 32 31 32 31 30 30 30 31 30 28 27 28 32 31 31 31 31 33 33 32 33 32 31 25 22 19 18 16 17 19 19 19 19 19 21 22 21 22
37 35 32 32 34 32 31 33 31 32 33 33 31 30 28 27 29 29 30 30 29 29 30 29 28 27 24 22 21 18 17 17 17 15 17 17 18 19 19 20 20 21 22
38 35 32 31 30 30 32 33 34 33 32 31 31 28 28 28 29 30 30 30 30 30 30 28 27 27 22 21 18 16 17 16 17 17 17 18 18 18 19 20 21 20 23
36 33 32 31 31 32 35 34 31 31 31 31 29 29 29 29 31 30 29 29 29 27 25 23 22 21 19 17 16 15 16 17 18 18 18 18 17 18 20 20 21 20 18
36 34 36 35 35 36 33 31 31 31 30 30 29 29 30 30 30 30 29 28 25 24 23 22 20 20 21 18 16 17 19 18 18 17 17 18 17 17 19 21 21 16 17
36 37 37 36 34 32 31 29 29 29 28 29 29 29 29 30 29 30 28 25 23 22 20 22 21 20 21 22 22 21 20 17 16 17 17 16 16 16 18 16 16 17 17
38 37 37 34 34 32 30 29 29 29 30 30 29 29 29 31 29 29 26 23 22 21 20 22 21 21 21 20 20 19 17 17 16 17 16 17 15 15 16 17 19 20 20
36 35 35 31 30 31 30 30 32 32 29 29 29 28 29 31 30 29 25 22 21 21 22 23 21 21 20 18 18 16 16 15 15 16 17 17 17 19 21 22 24 24 24
30 30 31 31 31 31 32 33 32 30 30 28 28 28 29 30 30 29 25 21 20 22 23 23 23 21 20 21 18 17 17 15 14 17 17 19 18 19 21 23 21 21 18
31 32 32 33 35 34 33 32 31 31 27 27 28 28 28 28 29 29 27 22 22 22 23 23 22 19 21 20 19 18 16 13 15 17 18 17 18 19 20 21 22 20 20
35 36 37 37 36 34 31 30 28 27 28 28 27 28 28 28 28 29 29 23 22 22 22 22 22 22 21 21 22 20 17 16 18 19 18 17 18 18 18 19 21 22 21
35 36 35 32 31 30 30 30 28 28 27 26 26 27 28 29 29 28 29 28 24 22 22 23 23 23 23 24 22 22 22 21 20 18 16 16 15 14 17 19 20 21 22
32 31 30 31 31 31 29 28 26 26 26 26 26 26 26 27 29 29 29 29 28 24 23 23 22 23 24 24 24 23 22 20 19 16 15 15 14 15 18 18 18 19 21
30 30 30 30 29 29 28 28 28 28 26 26 25 26 26 26 27 28 29 29 29 28 24 24 23 23 24 23 22 21 21 20 19 16 15 14 15 16 17 17 17 18 19
29 29 29 27 28 28 28 28 28 28 27 26 25 26 26 25 26 27 28 28 29 28 26 23 22 21 22 22 20 20 21 20 18 17 15 13 16 16 17 17 18 17 16
27 27 26 26 26 26 27 27 28 28 28 28 29 28 28 28 29 29 30 31 31 29 24 23 22 21 21 20 18 18 19 18 18 16 13 15 14 16 16 16 17 16 14
27 26 26 26 26 26 27 27 26 28 29 29 29 29 27 28 29 30 30 31 32 30 25 22 22 20 19 19 19 19 19 20 17 16 15 15 14 15 16 16 15 16 15
29 29 28 28 28 28 28 28 28 28 28 28 27 27 27 28 28 30 31 30 29 29 25 22 21 19 18 19 19 19 19 19 16 15 15 14 12 14 16 15 13 15 15
30 30 30 30 30 30 30 31 31 30 30 29 29 27 27 28 29 30 30 30 28 25 25 24 22 21 20 20 20 19 19 18 16 15 15 14 13 16 16 13 11 15 15
26 25 23 22 22 22 22 23 25 27 29 28 28 28 28 26 26 28 28 28 29 27 25 24 24 23 22 21 20 20 19 18 17 15 15 13 13 16 15 12 11 15 16
18 18 19 21 21 21 22 22 23 24 25 25 30 29 27 27 27 26 26 27 28 27 26 25 24 24 24 23 22 22 22 21 20 19 17 15 15 15 14 11 12 15 15
18 20 21 20 19 19 20 22 23 23 24 24 25 27 28 26 27 27 28 28 28 28 28 27 26 25 24 24 24 23 22 21 21 19 18 16 15 14 13 12 14 13 13
17 16 16 16 15 16 17 18 17 19 24 25 28 27 26 26 26 27 28 27 27 29 29 28 27 27 27 27 27 26 24 22 22 21 20 16 14 14 13 13 13 13 13
13 14 10 11 11 12 13 13 15 15 15 18 22 22 21 21 20 20 20 21 21 21 20 21 24 28 29 28 28 27 27 26 24 23 22 19 16 15 13 13 12 12 11
10 9 7 8 8 9 9 10 10 10 11 12 12 14 14 15 14 14 15 16 16 16 17 18 20 21 22 22 28 29 28 27 27 25 23 21 18 16 14 12 12 11 10
8 8 6 6 6 6 6 7 6 7 8 9 10 10 10 11 11 11 12 12 12 13 14 15 16 17 18 19 20 23 29 28 27 25 23 21 18 16 13 13 12 10 11

GFSGL_sfc_30mbdewp_039.txt.gz
Dewpoint
43 42 40 40 39 38 36 33 31 33 32 31 31 31 31 30 29 30 33 31 31 31 33 33 32 32 33 33 30 26 22 19 17 16 19 18 18 18 18 20 21 21 22
39 38 38 38 38 36 34 32 33 32 32 32 34 33 31 28 28 30 31 30 30 29 30 31 30 30 30 27 23 20 18 17 16 14 16 17 17 18 18 19 20 21 21
39 39 38 36 34 33 34 35 33 33 34 34 33 31 30 28 28 30 30 30 30 30 30 30 28 27 26 23 21 19 17 17 17 17 17 18 18 18 18 19 20 21 22
40 38 36 36 34 35 35 35 34 33 33 32 32 31 30 29 29 30 30 30 30 30 30 28 24 23 22 20 19 17 16 16 17 18 17 16 17 18 19 19 18 19 17
40 38 36 36 36 37 35 33 34 34 33 32 31 31 30 31 29 31 30 30 29 28 25 24 22 21 21 18 17 16 16 18 18 17 15 15 17 16 18 17 17 16 17
40 40 39 38 37 34 33 33 32 31 31 34 35 33 30 31 30 30 30 29 28 26 24 22 21 23 23 25 22 21 20 18 15 16 14 15 15 17 16 16 17 18 16
40 40 39 36 35 33 32 32 31 33 35 36 35 31 29 29 29 30 31 28 26 24 22 20 21 21 22 23 24 23 20 19 18 16 13 15 17 15 16 18 19 20 20
39 39 37 33 32 32 32 34 34 37 36 33 29 28 28 28 30 31 31 26 23 22 21 22 22 21 22 20 18 18 17 17 16 14 16 17 17 19 19 20 22 22 21
32 32 33 34 34 35 35 37 38 35 31 29 28 27 28 27 29 30 30 24 22 22 22 23 23 22 22 24 20 18 17 18 16 16 18 19 19 18 18 19 18 19 16
32 33 35 36 38 38 37 34 33 31 30 28 27 28 28 28 28 30 30 25 22 22 23 23 25 24 22 24 22 18 18 18 15 14 17 18 18 18 18 19 20 18 18
37 38 39 39 38 36 33 31 30 29 28 28 28 27 27 28 28 29 31 27 25 24 25 24 23 24 23 24 22 20 20 19 16 18 19 19 18 18 17 17 19 19 18
37 37 36 34 31 30 30 30 29 28 27 26 25 26 26 27 28 29 30 31 27 25 24 24 24 24 25 24 23 24 24 22 21 20 19 18 16 16 15 17 19 19 20
32 31 30 30 30 30 30 29 28 27 26 26 27 26 25 26 27 28 30 30 31 28 26 24 25 25 25 24 25 26 25 23 21 19 17 17 16 16 17 18 18 19 19
29 29 29 29 29 27 28 28 28 27 26 27 26 26 25 26 26 26 26 28 30 30 28 26 26 27 26 23 24 24 23 21 20 19 18 16 15 15 16 18 17 17 17
28 28 28 27 27 27 27 27 26 27 27 27 27 26 25 25 25 26 26 26 27 28 29 27 24 24 23 22 22 22 21 20 19 18 17 16 14 16 15 17 17 17 15
27 27 27 27 27 27 26 26 27 28 28 29 29 28 28 28 28 29 29 30 30 30 27 24 24 23 22 22 21 20 20 19 19 19 17 15 14 15 14 16 16 15 15
29 29 28 28 28 28 28 28 27 28 29 29 29 30 30 30 32 32 29 30 31 31 27 26 23 23 22 21 21 20 19 18 18 18 18 15 14 14 14 16 15 14 14
27 27 26 25 25 24 23 24 25 24 24 25 28 29 30 30 31 32 31 30 29 29 29 26 23 23 22 21 20 20 19 19 18 18 16 14 14 13 13 15 15 12 14
21 19 19 20 20 21 21 21 21 21 21 21 22 23 25 29 29 30 31 29 28 27 26 26 25 24 22 21 21 20 19 18 16 16 16 14 13 13 13 15 14 11 14
17 18 20 21 21 20 17 17 17 18 20 21 21 22 23 24 26 26 26 27 28 26 26 26 26 25 23 22 21 20 19 17 17 16 15 15 15 13 15 15 12 11 15
18 18 16 17 17 16 17 16 17 17 15 15 19 22 22 23 25 27 25 26 28 28 27 27 26 26 25 23 22 21 20 20 19 18 17 16 15 13 15 14 11 13 15
14 15 13 11 13 13 13 13 13 14 13 13 13 14 17 24 26 26 26 26 28 27 27 28 27 26 25 24 24 23 22 21 21 20 20 18 16 15 15 13 11 13 13
12 11 8 9 9 9 9 9 10 9 10 11 11 12 13 14 14 15 16 18 19 18 19 20 22 26 26 26 26 25 24 23 22 22 21 19 17 16 13 12 12 11 12
9 8 6 5 6 6 6 6 7 6 7 8 8 9 10 11 11 11 11 12 12 12 14 16 18 20 20 22 26 27 27 26 26 24 23 21 18 16 14 13 12 11 12
7 6 5 4 4 3 3 4 3 3 4 4 5 6 7 8 9 8 9 9 9 8 9 11 14 15 17 17 18 20 23 27 27 25 23 23 20 17 15 14 12 11 10
5 4 4 3 2 1 0 1 -0 1 1 2 3 4 5 6 6 6 7 7 6 6 7 9 10 12 14 16 17 19 20 20 25 27 24 23 20 17 16 14 13 12 11

GFSGL_sfc_30mbdewp_042.txt.gz
Dewpoint
54 53 52 49 47 47 45 44 40 36 34 34 38 35 33 32 31 30 31 32 32 32 33 32 32 32 32 33 33 32 30 30 26 19 20 19 18 17 18 18 20 20 22
50 48 48 47 46 44 43 39 36 34 35 34 33 33 32 31 33 30 30 32 31 31 31 32 31 32 32 32 30 27 22 20 17 15 16 17 17 18 18 18 18 19 21
47 45 44 44 43 40 37 36 35 34 34 36 34 34 35 36 31 29 30 31 31 31 30 30 29 30 28 27 24 22 20 18 17 17 16 18 18 18 17 19 19 20 21
44 43 42 40 38 38 37 35 36 36 34 34 36 35 33 31 32 31 30 30 30 30 30 30 30 29 26 24 23 21 19 17 16 17 17 17 16 16 18 18 16 16 16
43 42 39 39 38 38 36 36 36 35 34 34 35 37 38 36 33 33 32 31 30 30 30 30 28 25 24 23 20 18 17 16 16 17 17 15 14 14 13 17 16 17 18
41 39 38 39 37 36 35 33 33 36 37 38 38 38 37 37 36 32 30 30 30 29 28 27 24 25 26 26 25 22 18 17 17 16 15 14 12 13 17 16 17 17 15
41 40 39 37 35 35 34 34 35 36 39 39 38 38 36 33 30 29 30 31 29 28 27 25 23 21 23 21 24 26 25 23 19 17 16 14 13 16 16 17 18 19 18
39 38 37 35 33 33 35 37 38 39 38 38 36 32 30 29 29 29 29 31 28 27 25 23 22 21 22 22 22 23 21 19 18 18 16 15 16 18 19 19 20 20 19
34 33 33 34 35 36 37 39 39 38 36 34 31 28 27 28 28 28 30 29 26 25 23 23 22 23 26 25 22 19 18 18 19 20 18 19 20 20 20 19 15 17 15
34 35 37 38 38 39 38 37 35 33 31 31 29 28 28 28 28 28 30 29 26 25 24 23 25 25 24 25 25 22 19 18 18 15 14 17 19 18 19 18 18 17 16
38 39 39 39 38 38 36 33 31 29 29 28 28 28 27 27 27 28 30 30 27 26 25 25 25 25 28 26 25 22 20 19 19 16 15 18 19 19 18 18 17 18 16
37 36 34 32 31 31 30 30 29 28 27 27 26 26 26 27 27 28 29 31 30 28 26 26 26 26 27 27 26 25 23 23 22 20 19 19 19 18 17 17 18 19 19
30 30 29 29 30 30 28 28 28 27 26 26 26 26 26 27 26 27 28 29 30 30 28 28 27 26 27 29 28 25 25 24 22 21 20 20 18 18 17 18 19 18 18
28 28 28 28 27 27 27 27 27 26 25 26 26 26 26 26 26 26 26 26 27 29 30 29 28 27 27 28 27 28 27 25 23 21 19 19 18 16 16 17 17 17 17
28 28 28 28 27 27 27 27 27 27 27 27 27 27 27 27 28 28 27 26 27 26 27 28 27 26 25 24 24 24 24 23 21 20 18 18 17 16 15 16 17 17 15
27 27 27 27 27 27 26 25 26 27 27 28 28 29 29 30 30 30 30 30 32 31 27 27 25 24 23 23 23 22 23 22 21 20 18 18 17 16 15 15 16 16 14
24 24 21 20 20 20 20 20 20 20 20 20 21 22 23 24 25 26 29 30 32 31 28 27 25 25 24 23 23 23 21 21 20 20 19 17 17 16 14 14 14 15 13
19 19 19 20 20 20 20 20 19 18 16 16 18 18 20 21 23 24 25 27 28 30 29 28 27 25 25 24 23 22 21 21 19 19 17 17 16 15 14 14 14 14 13
17 19 19 19 20 19 17 16 16 16 16 14 14 14 16 15 18 22 23 26 26 27 28 28 26 26 26 24 24 23 22 20 19 17 17 16 15 14 14 14 13 14 12
16 17 15 16 16 14 14 13 14 14 14 13 12 12 14 14 13 14 22 23 25 26 28 27 27 26 25 25 23 22 21 20 18 16 16 16 15 13 15 15 13 13 12
14 14 11 11 12 12 11 11 11 11 9 10 10 11 12 12 12 13 13 13 18 24 27 27 27 27 27 25 24 22 20 20 19 18 17 16 14 14 15 15 14 13 12
12 9 9 9 9 8 8 7 8 7 6 7 7 8 9 9 10 10 11 11 12 13 15 17 20 23 26 25 24 23 21 20 21 20 18 17 16 15 16 15 14 13 12
10 6 5 5 5 5 3 3 5 3 3 4 4 5 6 6 8 8 8 9 10 10 11 12 14 17 18 20 23 25 24 23 23 23 21 19 18 17 16 15 14 12 11
6 4 4 2 3 1 -0 -1 1 0 1 1 1 2 3 4 5 6 6 7 8 8 9 9 10 11 12 14 17 19 21 25 26 25 24 21 19 18 16 15 14 12 11
3 1 2 1 -0 -2 -4 -3 -2 -3 -3 -2 -1 -0 1 1 3 3 3 5 5 6 7 7 8 8 9 11 13 16 18 19 20 25 24 23 21 18 16 16 15 13 11
1 -1 -0 -0 -3 -5 -6 -6 -5 -5 -5 -4 -3 -2 -1 -1 1 1 1 2 2 3 5 6 6 5 6 9 12 14 14 16 18 20 24 23 21 18 16 16 15 14 12

GFSGL_sfc_30mbdewp_045.txt.gz
Dewpoint
57 57 57 56 55 54 52 51 47 44 40 37 37 41 41 37 35 33 34 35 34 34 34 34 33 33 32 32 32 31 30 29 27 22 21 20 19 18 18 17 14 13 14
56 55 55 55 53 53 51 50 47 43 39 39 39 39 37 36 33 36 36 33 32 32 33 33 33 32 33 32 32 31 29 27 25 20 18 17 18 18 18 16 11 12 16
54 53 52 51 50 49 49 46 43 41 39 38 37 36 36 35 38 36 37 34 32 33 33 33 32 32 31 31 31 29 26 24 22 20 17 17 18 18 16 12 11 15 13
50 48 48 48 48 47 44 42 41 39 37 37 38 38 37 35 38 36 33 32 32 32 32 32 32 31 30 30 29 27 24 22 19 18 16 16 17 16 15 9 10 11 12
48 47 45 44 42 41 39 38 38 37 37 36 36 38 39 39 38 37 36 35 35 33 32 33 32 32 32 30 26 25 22 19 18 17 16 16 15 14 10 8 12 11 13
45 43 41 39 38 37 36 36 37 38 37 38 38 39 39 39 39 38 37 35 31 30 30 31 31 31 30 28 27 24 20 20 20 19 17 16 15 15 11 12 13 13 11
41 40 39 37 35 35 36 37 37 38 40 40 40 40 39 39 38 35 32 30 31 30 31 30 30 27 26 25 26 28 27 24 21 20 20 18 18 14 10 13 13 13 13
39 37 36 35 34 35 37 39 39 39 39 39 39 38 38 35 32 30 30 30 30 30 30 30 29 28 25 24 23 29 25 24 23 21 19 18 18 12 14 16 16 16 14
35 34 34 35 36 38 38 39 40 39 39 38 37 34 32 30 29 29 29 30 29 29 28 28 27 26 25 25 31 28 23 22 21 21 20 21 20 19 21 18 16 14 14
35 36 36 37 38 38 39 38 37 35 33 32 30 31 31 30 30 29 29 31 30 29 29 27 26 26 25 27 30 28 25 22 20 18 19 19 18 18 20 18 16 15 14
37 38 39 39 38 37 35 33 31 30 30 31 30 30 29 29 29 29 29 30 30 30 29 28 28 27 27 27 28 30 27 25 21 20 19 15 13 15 17 17 16 16 15
35 32 31 31 30 30 30 30 29 29 29 28 29 28 29 29 29 29 29 29 30 31 30 29 29 29 28 28 29 31 28 26 23 22 21 19 17 18 18 17 17 17 17
29 29 29 28 28 28 27 28 27 28 28 28 28 28 28 29 29 29 29 29 30 31 31 31 30 29 29 29 29 30 30 27 26 24 22 20 20 19 19 19 18 18 17
28 29 29 28 28 28 27 27 26 26 26 25 25 25 25 25 26 27 29 30 30 29 30 32 31 30 30 30 29 30 30 29 27 25 23 21 21 21 20 19 19 18 16
27 26 25 23 21 19 18 19 18 19 23 21 20 20 22 22 22 24 24 25 27 28 30 30 30 29 28 28 28 28 28 28 26 26 24 23 21 20 20 20 19 18 15
20 17 17 17 16 16 15 14 18 19 20 19 18 19 20 19 18 18 19 21 24 25 26 26 27 29 27 27 26 25 25 26 26 26 25 23 22 21 20 19 19 18 15
15 15 16 16 16 16 15 14 14 15 16 17 16 16 16 16 17 16 17 20 23 24 24 24 27 29 27 27 25 24 24 25 26 25 25 24 23 21 21 19 19 17 16
16 18 15 16 16 15 14 14 14 13 13 13 14 13 13 14 14 15 16 16 20 22 22 25 27 29 28 27 26 25 25 25 25 24 24 24 23 21 20 19 18 18 16
13 12 14 15 14 13 13 12 12 11 11 10 10 10 11 11 12 13 13 14 14 14 16 23 26 29 29 28 27 27 25 25 25 24 24 23 22 20 21 19 18 17 16
12 13 10 11 11 10 10 10 9 9 8 8 8 9 8 9 10 11 11 12 12 12 13 14 15 27 29 28 28 27 26 25 24 23 23 23 21 21 21 20 19 19 17
11 9 10 9 9 8 8 7 7 7 6 6 6 7 6 7 8 8 8 9 10 10 10 11 14 15 19 28 28 27 25 24 24 23 23 22 21 20 21 21 20 19 17
8 7 7 7 7 6 4 4 6 4 3 3 4 4 4 6 6 6 7 6 8 9 10 10 11 13 14 14 19 25 24 24 24 23 23 23 21 20 20 20 20 20 18
7 5 5 4 4 3 2 1 2 2 1 2 2 2 2 3 3 3 5 5 5 7 7 8 9 10 11 12 14 18 20 23 25 26 23 23 22 21 20 20 20 19 18
4 4 3 3 2 1 0 -0 0 -1 -1 -1 0 0 0 1 2 2 3 3 3 4 4 7 8 8 9 9 11 14 18 18 20 25 26 24 23 22 21 21 20 19 18
3 3 2 2 1 -0 -1 -2 -2 -2 -2 -2 -1 -1 -1 -1 -1 0 1 1 1 1 1 3 6 7 7 7 8 11 12 11 16 20 24 25 24 23 21 21 20 19 18
3 1 1 1 0 -1 -2 -3 -4 -4 -4 -3 -3 -3 -2 -2 -2 -1 -1 -1 -1 -1 -0 1 3 3 5 7 8 9 8 8 12 15 19 23 24 23 21 20 20 19 17

GFSGL_sfc_30mbdewp_048.txt.gz
Dewpoint
57 57 58 57 57 57 56 55 54 53 51 46 45 42 40 41 41 38 39 39 37 38 38 36 33 32 29 29 30 29 27 26 23 21 20 19 21 22 20 19 18 16 11
56 57 57 57 57 56 56 56 55 51 48 45 43 41 43 40 39 39 39 38 38 37 37 34 32 29 29 31 30 29 28 27 24 21 20 19 19 19 19 19 17 12 11
56 56 56 55 55 54 53 51 49 48 45 41 42 42 39 39 38 40 39 40 40 39 36 34 31 30 29 30 30 30 28 26 24 22 20 19 18 18 17 17 15 11 11
54 53 52 52 51 50 49 47 45 44 42 41 40 40 40 40 39 39 41 40 39 37 34 33 32 32 30 30 29 31 29 26 24 22 19 18 17 17 16 14 11 7 9
52 50 49 48 47 46 46 45 43 40 39 39 40 39 40 40 40 40 39 39 38 39 36 35 32 32 33 32 28 27 28 26 24 21 18 18 16 16 13 13 11 9 11
49 47 45 44 43 42 40 39 39 38 38 38 38 39 40 40 40 39 39 39 38 36 31 29 29 30 33 33 32 31 29 27 25 23 22 21 18 16 14 14 9 9 10
44 42 41 39 38 38 37 37 37 39 41 41 41 41 41 41 40 39 39 35 31 29 29 28 26 25 29 31 32 30 28 25 22 24 25 23 19 17 16 14 10 11 12
41 39 38 37 37 37 37 39 40 40 40 40 39 40 39 38 37 34 31 29 29 28 28 27 26 26 27 29 29 27 26 26 27 27 24 21 19 18 18 14 13 15 15
37 37 36 37 37 38 38 39 40 40 39 39 37 35 33 32 31 30 30 29 29 28 27 26 26 26 26 29 28 27 25 26 29 25 25 24 22 21 20 16 16 15 15
37 36 37 38 38 38 39 39 37 36 32 31 29 30 30 30 30 31 30 28 28 28 28 26 27 27 27 28 27 27 27 26 26 26 22 22 23 22 23 20 17 15 15
37 38 38 38 36 35 34 32 30 29 29 30 30 29 28 28 28 29 30 30 29 30 28 27 27 28 28 28 28 27 29 28 28 31 28 20 19 18 15 18 17 16 15
35 33 31 31 28 28 27 26 25 25 26 27 30 29 29 29 29 29 29 30 29 30 30 31 31 31 30 29 29 29 29 30 32 31 28 25 20 19 16 15 16 16 16
30 28 27 26 26 26 26 27 25 26 27 26 24 24 22 22 21 22 23 23 23 25 26 30 30 31 33 32 32 29 30 31 30 29 28 26 24 23 21 19 19 17 17
26 27 27 26 25 24 22 19 16 18 18 16 17 18 18 19 18 20 18 19 20 22 24 26 26 28 30 31 33 32 31 32 31 29 28 27 27 27 22 21 20 18 19
25 23 22 20 13 10 9 13 14 17 19 16 17 16 18 18 18 18 19 19 20 21 22 24 24 23 24 25 28 31 32 31 30 30 30 29 29 25 24 22 22 20 18
17 14 15 15 14 11 9 10 19 18 18 18 17 17 17 17 16 16 17 17 18 18 23 21 22 24 23 22 24 29 30 29 28 29 29 28 28 26 24 23 21 21 17
11 12 13 14 12 12 11 11 11 15 16 16 15 14 14 14 14 14 15 15 16 16 18 19 22 25 26 23 24 27 29 29 27 27 27 28 28 27 26 23 23 20 18
13 14 12 13 13 12 13 13 13 13 13 13 12 12 12 11 12 13 13 14 13 14 14 14 17 19 20 22 27 28 29 29 28 28 27 27 28 26 26 23 20 21 18
10 10 14 15 14 13 13 12 11 11 11 10 10 9 10 9 11 11 12 13 12 12 12 13 14 16 17 19 26 31 30 29 28 27 26 27 27 27 25 23 21 20 18
11 11 11 11 11 10 10 10 9 10 9 9 9 10 9 7 10 11 11 11 11 10 11 11 12 13 16 18 19 25 30 29 27 27 28 27 28 27 25 22 22 22 18
7 8 11 9 9 9 9 9 8 9 9 8 8 9 5 6 9 9 8 9 9 9 10 10 11 12 13 14 15 17 20 29 28 27 27 27 27 26 24 24 22 21 20
8 7 8 8 8 9 7 7 8 8 7 6 7 6 4 7 7 6 6 7 8 8 8 9 9 11 12 12 12 14 16 21 26 26 26 26 27 26 24 24 23 23 20
8 8 6 6 7 6 7 6 7 7 6 6 5 5 5 6 5 5 6 6 7 6 7 7 7 8 9 11 11 12 14 16 17 20 24 26 26 25 24 23 22 22 22
7 7 5 6 7 5 6 6 6 4 3 4 5 5 5 4 5 5 5 5 5 5 5 5 4 6 6 8 10 11 12 15 13 15 20 23 26 26 25 24 23 21 21
8 7 6 6 6 6 5 5 4 4 4 4 4 4 3 4 3 3 4 4 3 3 2 3 4 4 5 5 7 10 12 11 11 12 16 20 26 26 25 25 24 24 23
6 5 5 5 5 4 4 3 3 2 2 2 2 2 2 2 2 3 2 1 1 0 1 3 3 3 4 5 6 10 10 9 10 11 12 17 22 26 26 24 25 24 23

GFSGL_sfc_30mbdewp_051.txt.gz
Dewpoint
55 57 58 58 58 59 58 58 57 55 54 52 51 49 46 46 43 41 41 41 40 41 40 40 39 40 36 35 32 31 30 29 26 25 24 23 23 23 22 23 22 21 21
55 56 58 58 58 58 58 57 57 56 53 51 48 47 45 43 43 41 40 40 39 39 40 40 40 39 36 35 33 33 31 29 28 27 26 24 22 22 23 22 20 18 18
55 55 57 57 56 56 54 53 52 51 49 47 46 44 44 43 41 40 41 40 41 41 40 40 40 38 38 36 34 33 32 30 30 29 29 24 23 22 20 21 20 19 17
55 55 55 54 53 53 52 50 48 46 43 43 43 42 41 40 40 40 40 41 41 41 41 40 39 39 37 35 34 32 31 31 30 29 27 25 24 21 20 19 18 18 14
53 52 51 51 50 49 48 47 46 43 42 41 41 41 41 41 41 41 41 41 40 40 40 40 40 38 36 33 31 33 32 29 30 30 27 25 22 19 18 18 19 16 15
51 50 48 48 47 45 44 44 43 42 41 40 40 40 40 39 40 40 40 40 39 39 38 39 37 31 30 30 31 32 33 33 31 29 27 26 24 22 24 22 18 16 14
46 45 44 42 42 40 39 39 39 39 40 40 40 41 41 41 40 40 39 39 36 34 31 30 29 26 26 25 28 32 33 33 31 30 28 27 27 26 27 24 18 18 15
42 41 41 40 39 39 39 40 40 40 40 41 40 40 40 38 39 39 36 31 29 28 28 28 27 28 28 28 27 28 30 31 31 29 27 26 26 28 27 21 20 17 16
39 39 39 39 39 39 39 39 40 40 39 39 38 36 34 33 36 31 30 29 29 28 27 27 26 27 28 27 28 28 28 28 27 26 29 29 26 22 21 21 20 18 19
38 38 38 39 38 39 40 39 38 38 34 31 29 29 29 28 30 31 30 29 29 29 29 28 28 28 27 27 28 29 28 27 26 25 27 30 27 25 24 22 20 20 18
38 38 39 39 39 38 36 35 32 30 28 30 29 29 28 28 30 30 30 28 29 28 28 29 30 30 32 32 32 32 30 29 28 28 28 27 32 27 24 24 22 20 19
37 36 35 34 32 32 30 27 24 25 26 28 29 29 28 28 25 25 24 21 20 21 21 24 25 25 26 25 28 31 33 32 32 31 30 30 31 31 29 25 22 21 20
34 32 30 26 24 24 24 25 23 25 25 23 20 21 20 20 19 23 20 19 19 20 20 22 22 23 24 27 28 31 31 32 31 30 30 30 28 28 28 29 25 21 20
28 27 25 24 23 22 20 14 14 18 18 15 16 18 18 19 18 20 18 18 18 19 20 21 22 24 24 24 25 26 28 29 30 30 30 30 29 29 31 29 26 23 22
25 23 22 18 14 10 12 13 16 20 18 17 18 17 19 19 18 17 16 16 18 18 20 21 23 24 25 26 25 24 23 26 29 31 31 32 29 30 31 29 27 24 22
19 18 19 17 15 9 9 16 17 16 18 18 17 17 17 17 15 15 15 16 15 17 17 18 18 20 21 21 22 23 26 26 28 31 31 30 28 29 29 29 27 26 21
16 15 15 15 13 12 12 12 12 19 18 18 16 14 13 14 13 13 14 14 15 14 13 13 16 18 18 18 19 21 21 23 32 31 31 30 28 27 29 28 27 26 22
13 14 14 14 14 13 13 13 13 14 15 15 15 12 12 12 12 13 13 13 13 12 11 11 12 14 16 16 17 19 20 19 30 30 30 29 29 28 28 27 27 26 22
12 13 17 18 16 15 14 14 13 12 13 13 12 12 12 11 10 13 13 13 12 11 10 10 11 12 14 15 16 17 17 19 28 30 29 29 29 27 28 28 27 27 25
10 13 14 13 13 12 11 12 10 11 11 11 11 11 12 9 10 12 11 11 11 10 9 9 10 12 14 15 15 16 15 17 20 29 29 29 29 28 27 28 27 26 22
9 10 12 10 10 10 10 11 10 11 11 10 10 12 8 7 9 9 9 9 9 9 9 9 10 12 12 13 14 14 13 14 18 19 26 29 29 27 28 29 27 26 26
9 9 10 10 9 11 10 9 10 10 10 9 9 9 7 8 9 8 8 8 9 9 9 9 10 9 9 10 12 12 12 12 15 16 16 18 27 27 28 27 26 26 23
10 11 8 7 10 9 10 10 9 10 9 9 8 8 8 8 8 7 7 8 8 8 8 9 9 9 7 9 10 11 12 11 13 14 13 15 19 27 28 26 26 26 24
10 11 8 8 9 8 10 10 10 8 7 7 8 8 7 7 7 6 6 7 7 7 8 8 7 5 7 8 8 9 9 12 13 12 13 14 17 20 27 27 26 26 23
11 10 9 9 9 9 9 9 8 8 8 7 7 6 6 5 5 5 5 5 6 6 6 5 5 7 6 6 7 7 8 13 11 11 12 14 14 18 23 27 26 26 25
9 8 8 8 8 8 8 7 7 7 6 5 5 4 4 4 3 3 4 3 4 3 3 5 5 5 5 6 7 8 9 8 8 10 11 12 14 19 24 26 27 26 25

GFSGL_sfc_30mbdewp_054.txt.gz
Dewpoint
57 58 57 57 57 58 60 59 60 57 56 54 53 52 51 47 46 44 43 42 41 42 41 40 41 42 41 41 38 37 34 33 31 31 29 27 28 29 26 28 27 26 25
58 59 58 58 59 59 59 59 58 56 55 54 52 49 47 46 43 42 42 42 41 40 40 40 41 41 40 40 38 37 35 34 32 31 31 29 29 29 26 25 25 23 22
57 58 58 59 58 56 55 54 53 52 49 48 47 46 44 44 42 42 41 40 40 39 40 41 40 40 40 40 39 38 36 34 34 32 31 31 31 30 25 26 24 25 24
57 57 57 55 54 53 51 50 48 47 46 46 45 44 43 42 42 41 40 39 40 41 41 41 40 41 39 39 39 38 36 35 35 33 32 31 30 28 26 24 22 23 22
55 54 53 52 51 50 48 46 45 44 44 43 42 42 41 41 41 40 40 41 41 41 41 41 41 40 40 39 38 36 34 32 32 32 31 31 30 28 25 24 23 23 22
52 52 51 50 50 49 47 45 43 42 42 42 41 41 41 40 40 40 41 41 40 39 39 39 40 40 40 39 38 37 31 30 30 31 31 30 30 29 28 26 26 24 23
50 50 48 47 45 44 44 42 41 42 42 41 41 41 41 41 40 40 40 39 39 39 38 37 33 30 30 30 30 30 30 31 32 31 30 30 30 30 30 28 27 27 25
46 44 44 43 41 41 41 41 41 41 41 41 41 40 40 40 40 39 39 38 32 31 31 31 30 30 31 31 31 29 29 30 32 32 32 31 31 30 28 27 28 26 21
42 42 41 40 41 41 40 40 41 40 40 40 39 39 38 37 39 36 31 32 31 31 31 31 31 30 31 31 31 31 31 29 29 29 31 32 31 29 28 26 23 21 20
40 40 40 40 40 41 40 40 40 40 38 35 32 31 28 32 31 30 30 31 30 27 27 27 27 28 27 27 27 27 27 30 33 33 32 30 32 28 26 24 24 23 26
39 40 40 40 40 40 39 38 38 32 33 31 30 31 31 29 28 25 24 23 21 21 22 22 22 23 23 23 23 22 20 23 27 29 31 32 32 31 28 26 24 24 24
40 39 39 38 37 36 34 29 26 28 29 31 30 29 29 28 25 23 21 21 20 20 20 21 22 21 22 23 24 24 25 27 28 26 27 27 31 32 33 31 27 25 24
37 36 35 32 30 28 27 26 27 28 26 22 21 22 24 23 26 22 19 18 19 20 20 20 19 20 22 24 25 25 25 24 22 24 25 25 26 31 32 33 32 29 25
33 30 27 26 24 23 20 17 23 22 19 17 21 20 23 22 22 20 19 19 18 19 19 19 20 21 22 21 22 22 23 25 26 28 27 28 29 31 32 32 30 29 28
28 26 25 23 18 16 17 19 22 18 20 21 20 20 21 20 19 17 17 17 17 17 18 19 19 19 18 18 17 18 19 20 21 21 23 29 28 31 31 32 30 29 26
24 23 22 19 16 15 15 16 20 18 18 17 16 17 18 18 15 15 15 15 15 16 18 17 16 16 16 15 15 15 16 18 17 19 20 24 29 30 30 30 30 28 26
20 20 19 19 18 15 14 19 20 19 19 19 17 15 14 14 14 14 14 14 15 17 14 14 14 14 14 14 14 14 14 16 16 17 18 23 29 30 30 29 28 27 26
17 18 19 19 18 17 17 16 16 17 19 21 18 16 15 13 14 13 15 14 15 14 14 12 12 13 13 13 12 13 14 15 15 15 17 25 30 30 29 28 28 26 26
19 21 23 23 21 19 17 16 15 14 15 15 14 16 14 13 12 13 14 15 14 13 13 12 11 11 12 12 12 13 13 13 13 15 18 21 30 29 28 28 28 27 27
21 22 22 21 18 15 14 14 13 13 14 14 14 15 15 12 10 11 14 13 12 12 12 12 11 11 11 11 11 11 11 11 12 13 15 15 17 28 27 26 27 27 26
19 18 15 13 13 13 13 13 12 13 14 13 13 13 8 8 9 13 12 11 13 12 11 12 12 10 10 10 9 8 10 9 11 11 13 12 14 16 26 28 27 27 26
14 14 13 13 12 14 13 12 12 13 13 12 12 12 10 10 12 12 10 11 11 11 12 10 10 9 9 9 7 8 9 8 10 10 10 10 11 13 17 23 28 27 26
15 13 10 10 12 10 12 13 12 13 13 12 11 12 12 12 12 11 11 10 11 11 10 9 8 8 7 6 7 10 8 9 8 9 11 9 9 10 14 17 26 26 26
13 13 10 10 12 10 12 14 12 12 11 11 12 11 12 11 10 9 9 10 9 8 7 8 8 4 5 8 9 7 7 7 8 11 11 8 7 11 12 14 18 26 26
13 13 11 12 12 13 12 11 12 11 11 11 11 11 9 9 9 8 7 7 6 5 7 3 4 7 6 6 6 6 8 11 8 6 6 8 8 9 11 14 19 26 26
11 10 10 11 11 12 12 11 10 10 10 9 10 7 8 8 7 5 5 4 6 4 2 3 3 3 3 6 8 9 8 8 8 7 7 9 8 9 12 14 18 23 25

GFSGL_sfc_30mbdewp_057.txt.gz
Dewpoint
53 54 54 58 59 59 58 57 56 56 55 55 54 53 51 50 48 47 45 44 43 43 43 42 42 42 42 42 42 42 39 36 34 32 32 31 28 27 28 33 31 31 30
54 57 57 58 58 58 58 57 59 57 56 55 53 52 49 47 45 44 43 42 42 42 41 41 40 42 41 41 41 40 38 37 34 33 33 32 31 31 29 28 28 27 27
59 58 58 57 58 58 57 56 55 53 52 51 50 48 46 45 44 43 43 42 42 40 40 40 41 41 40 40 40 40 39 38 36 35 34 33 33 32 30 29 27 27 26
59 58 58 56 55 53 51 51 50 49 48 47 46 45 44 43 43 42 42 41 40 40 41 41 41 40 40 40 40 39 38 38 37 36 35 35 33 33 32 30 28 27 26
56 55 53 52 51 49 48 47 46 46 46 45 44 43 43 42 42 41 41 40 40 40 41 41 41 41 41 40 39 38 38 37 35 34 32 30 30 30 30 30 28 27 24
53 52 51 50 49 47 46 45 44 43 43 42 42 41 41 40 40 40 40 40 41 40 40 39 39 39 39 39 39 39 39 37 35 32 31 29 29 30 30 29 28 27 26
51 51 50 49 47 46 44 43 42 41 41 40 40 40 40 40 40 40 41 40 39 38 38 38 38 34 33 31 31 31 31 31 33 32 30 29 30 30 30 30 29 28 27
49 47 47 45 45 43 42 42 41 41 40 40 41 41 40 40 40 40 39 38 37 32 32 31 30 28 30 28 27 26 27 29 30 31 31 31 31 32 32 31 31 30 28
44 44 43 42 41 41 41 41 41 41 41 40 40 40 39 39 39 38 34 31 30 28 26 26 26 26 26 24 21 19 18 17 17 20 25 29 31 32 33 32 30 27 26
43 42 41 41 41 41 41 40 40 39 39 39 37 35 34 31 29 31 28 25 21 20 22 23 22 23 24 23 22 23 23 22 22 23 24 26 27 28 31 32 31 27 26
41 41 42 41 40 40 40 39 39 37 31 31 31 31 29 26 26 25 23 20 20 20 20 20 21 22 20 21 24 24 24 25 26 25 25 25 24 26 27 31 31 31 29
41 40 40 40 39 39 37 37 34 31 30 30 30 28 25 25 24 23 21 20 20 19 20 21 21 19 21 23 24 23 22 23 26 26 25 24 24 24 26 29 30 30 31
39 39 38 38 37 37 30 29 30 30 29 26 26 25 24 24 22 20 18 18 19 19 20 18 19 20 22 23 20 17 20 19 19 20 22 21 22 27 27 29 32 31 29
37 37 36 32 29 24 25 25 23 21 20 22 22 22 23 21 19 18 18 18 18 18 18 18 19 20 21 19 18 17 17 17 17 18 17 18 20 20 26 29 29 30 28
32 28 26 22 18 21 23 20 18 21 23 21 21 22 20 20 18 17 16 17 17 18 18 18 18 18 16 16 15 15 15 15 15 16 15 15 17 18 19 28 30 30 27
25 23 21 20 17 17 20 17 19 17 17 18 20 19 20 18 16 16 15 16 16 17 18 16 13 13 13 14 14 13 12 13 13 14 14 14 15 16 18 29 30 28 27
22 21 20 20 20 20 18 18 19 21 20 19 18 16 17 15 15 15 15 16 16 15 13 13 11 11 12 13 12 12 11 12 13 12 12 13 15 15 20 28 28 27 26
24 23 23 23 22 22 22 23 22 21 21 21 19 17 16 15 15 14 15 15 15 13 13 13 11 11 12 11 11 11 11 11 11 10 11 12 14 14 15 27 27 26 25
24 24 22 23 23 23 23 21 18 16 16 17 19 19 16 14 12 10 15 13 12 12 13 12 12 12 11 11 11 10 10 9 10 8 10 11 12 11 12 22 27 26 25
24 24 24 23 23 22 21 20 18 16 16 16 15 17 14 10 7 7 12 10 12 12 10 11 13 11 9 9 9 9 7 6 8 7 9 9 10 10 11 13 20 26 26
21 22 22 22 21 20 18 16 14 14 14 13 14 12 10 9 8 10 14 11 11 10 10 11 9 8 8 8 9 6 5 6 7 7 7 6 9 9 9 11 15 20 26
21 21 20 19 19 17 15 14 13 13 14 13 12 12 11 10 12 13 11 10 9 10 10 8 7 7 8 8 4 4 5 7 6 6 5 6 8 8 8 9 12 14 24
19 18 18 17 16 13 14 15 14 13 12 10 10 12 12 12 12 11 9 8 9 8 6 5 6 6 4 3 4 7 7 4 6 6 6 7 5 5 6 8 10 12 16
17 15 13 13 13 10 11 13 10 12 13 13 11 11 11 9 8 8 7 6 6 4 4 3 2 3 5 5 4 4 6 7 7 8 8 5 5 5 6 7 8 11 15
14 13 14 14 12 13 13 12 12 11 11 10 10 9 7 7 7 5 4 2 2 4 1 1 1 3 2 2 2 3 6 9 9 9 8 7 5 6 6 7 8 12 14
14 13 11 12 12 11 10 10 9 8 9 9 7 5 6 5 4 2 -0 2 2 -1 -1 -0 1 1 2 3 4 6 7 8 8 9 9 8 6 6 8 8 8 10 13

GFSGL_sfc_30mbdewp_063.txt.gz
Dewpoint
48 49 47 47 49 51 54 55 56 56 57 57 56 57 57 57 56 54 52 50 49 47 46 45 44 44 44 44 43 43 42 42 39 40 39 36 34 33 33 32 34 35 37
51 51 51 51 53 54 55 56 57 57 57 57 56 56 55 54 53 52 49 48 47 45 45 44 44 44 43 43 42 41 41 41 40 38 38 36 34 34 34 34 35 34 34
54 54 55 56 57 57 57 57 58 58 56 56 56 54 53 51 50 48 47 46 45 45 44 44 43 43 42 41 41 40 40 40 39 38 38 38 37 37 36 36 34 34 34
55 55 55 56 57 56 57 57 58 57 56 55 54 53 51 48 47 46 45 44 44 43 43 42 42 42 41 41 40 39 39 37 36 35 35 34 34 34 34 33 33 33 32
54 55 55 56 56 57 57 57 55 55 54 53 50 48 47 46 45 44 44 43 42 42 41 41 41 41 41 40 40 38 37 36 35 34 33 32 31 31 30 31 30 30 30
55 55 55 55 56 56 55 52 51 50 48 47 47 46 45 44 43 43 42 42 41 40 40 41 37 34 32 30 29 29 29 27 25 26 25 21 24 27 29 28 27 25 22
54 55 55 56 53 52 50 49 47 46 46 45 44 44 43 43 42 41 41 40 40 40 38 35 30 28 27 24 21 18 17 19 23 21 20 21 22 21 23 24 24 24 23
56 55 54 52 50 49 48 46 45 44 43 43 43 42 42 41 40 39 39 37 34 31 30 28 27 25 23 22 19 17 21 22 23 23 21 22 22 23 25 25 25 25 25
52 51 50 49 47 46 45 44 43 42 42 41 41 40 40 38 38 37 34 30 26 25 24 22 20 22 23 22 21 21 22 23 24 22 22 23 25 27 26 26 23 23 22
50 50 49 47 46 44 43 42 41 41 40 40 38 39 38 37 36 33 30 25 23 21 19 20 22 21 21 23 24 23 21 21 19 19 19 21 21 25 24 25 24 21 21
48 47 45 45 43 42 41 40 40 39 36 34 32 32 32 31 29 28 25 23 21 18 16 17 19 20 22 24 23 20 19 19 17 17 18 18 19 18 18 18 20 21 19
44 43 42 42 41 40 40 38 36 34 32 29 28 26 25 25 25 24 22 20 20 17 18 19 19 21 23 22 19 17 17 18 17 16 15 15 15 15 15 16 17 19 20
42 41 40 40 39 39 36 34 33 32 30 28 27 24 23 22 22 21 21 19 18 19 20 19 20 21 20 18 16 16 16 16 15 14 13 12 13 14 14 15 15 16 17
40 39 37 35 33 33 32 32 31 30 28 26 24 22 21 19 18 18 19 19 18 19 19 19 20 19 17 16 16 15 14 14 13 13 12 12 12 11 12 13 14 13 14
35 32 30 28 26 25 25 26 26 27 28 26 24 22 20 19 19 19 19 20 20 21 19 19 15 14 13 13 13 13 12 11 11 11 11 10 10 9 10 11 12 12 13
30 29 27 24 22 21 21 21 25 26 26 26 25 23 22 20 19 20 21 19 18 19 18 15 12 10 11 12 12 11 10 9 8 8 8 9 7 8 8 8 10 11 12
27 25 22 21 20 20 20 20 20 22 23 22 22 21 21 22 21 16 16 17 17 14 14 12 10 11 12 11 10 9 8 9 8 6 6 8 6 7 6 6 8 9 9
25 24 23 22 22 23 23 23 24 22 21 22 24 23 23 22 21 19 18 17 15 15 15 13 11 12 10 9 8 7 7 8 5 4 5 6 5 6 4 4 6 8 8
25 26 26 26 26 25 25 25 24 24 23 22 22 22 23 21 20 20 17 16 15 14 12 11 12 11 9 8 7 6 6 4 2 2 3 4 4 4 3 3 5 6 8
25 25 24 24 23 23 23 23 22 22 21 21 20 18 17 16 14 14 13 12 12 12 11 11 11 9 7 7 6 6 4 2 2 2 4 3 3 3 2 3 4 4 6
22 22 22 21 20 20 20 19 19 19 18 17 16 17 16 14 13 13 14 12 12 12 11 10 8 6 6 6 5 3 2 1 1 2 3 2 3 2 3 4 3 4 6
20 20 19 18 17 17 18 18 17 17 16 15 15 15 15 14 13 13 11 9 9 10 9 7 5 4 2 2 2 1 0 -0 1 1 1 3 3 3 3 3 2 3 5
18 18 17 16 16 16 15 15 14 14 14 13 13 12 11 10 9 8 7 7 7 5 4 2 -1 -2 -1 -1 -0 0 -1 1 2 3 3 2 3 3 3 3 2 2 4
15 15 14 14 14 13 12 12 12 12 11 10 9 9 8 7 6 5 3 1 1 -0 -3 -4 -4 -3 -2 -2 -2 -1 0 2 3 4 4 4 3 3 4 3 3 3 4
13 13 12 11 10 10 9 8 7 7 8 7 6 5 6 4 4 -1 -3 -2 -2 -4 -4 -4 -4 -3 -2 -2 -2 -1 -0 2 3 3 3 3 2 2 3 3 4 4 4
10 9 8 8 7 6 5 4 3 3 4 4 3 2 2 2 -1 -3 -2 -3 -3 -4 -4 -4 -3 -3 -3 -2 -1 1 1 -1 -0 1 2 2 1 2 3 4 4 5 5

GFSGL_sfc_30mbdewp_066.txt.gz
Dewpoint
50 50 49 49 49 50 51 52 53 54 55 54 54 55 55 56 55 55 56 55 54 52 50 49 48 47 46 45 44 43 42 42 40 40 40 39 37 37 36 35 34 34 35
49 50 49 48 48 48 49 50 52 52 54 55 56 55 56 56 56 55 54 52 52 49 48 47 46 45 44 44 43 42 41 41 40 38 39 38 36 36 36 35 36 36 35
49 50 50 48 48 48 48 49 51 52 53 54 56 56 56 55 54 54 53 51 50 48 46 45 45 44 43 43 42 41 40 40 40 38 37 37 36 36 35 34 34 35 34
50 50 50 50 49 49 49 51 53 55 56 56 56 56 55 53 52 51 49 48 46 46 45 44 44 43 42 41 40 40 39 38 36 35 34 33 34 33 33 31 30 31 31
50 51 51 52 52 51 52 53 53 56 57 57 55 53 51 50 49 48 47 45 44 43 43 43 43 42 41 41 40 39 37 36 35 32 31 31 28 26 24 29 24 23 23
51 52 53 53 54 54 55 55 55 56 56 55 53 52 49 48 47 46 45 44 43 42 41 39 38 36 34 33 31 30 29 28 26 24 23 17 17 23 23 22 23 22 19
52 53 53 54 54 55 56 56 54 54 52 50 49 48 46 44 44 43 43 42 41 40 37 34 31 30 27 23 21 19 19 21 21 20 17 20 21 21 23 23 23 23 22
52 53 54 54 55 54 52 52 50 48 48 47 46 44 43 41 41 41 40 38 36 35 33 31 27 24 23 20 17 19 21 22 24 24 23 23 24 25 25 25 24 23 22
53 54 54 54 52 50 49 48 46 45 44 43 43 42 40 38 38 37 34 31 29 26 26 25 24 23 22 22 19 20 21 23 19 18 18 19 20 21 23 24 21 20 18
54 53 52 51 49 48 46 44 44 43 41 40 39 39 37 36 35 33 30 27 24 22 22 22 22 21 23 25 23 21 18 18 17 14 15 17 18 19 18 18 18 17 17
51 50 48 47 46 44 42 42 41 39 37 35 33 33 33 33 32 30 28 26 22 19 18 18 20 22 24 24 21 20 19 17 15 14 14 15 16 16 15 15 16 17 16
47 46 45 43 42 41 40 39 36 34 32 31 29 27 27 27 26 26 24 22 21 17 17 18 21 23 24 20 18 18 17 16 16 14 13 13 12 12 13 13 14 16 17
44 42 41 40 40 38 37 35 33 33 31 30 28 25 23 23 23 22 20 19 20 18 20 20 22 22 19 17 17 17 16 15 14 13 12 11 11 11 10 11 12 12 14
41 38 38 36 35 35 35 34 32 31 30 28 26 24 21 20 19 20 20 19 19 19 20 21 21 19 17 16 16 15 14 13 12 12 10 10 10 10 8 9 10 11 12
36 34 33 31 30 28 28 29 31 31 31 30 27 23 21 19 18 19 19 19 21 22 21 19 16 15 14 14 14 13 12 11 10 10 9 7 8 7 6 8 7 9 10
33 31 30 29 28 27 27 26 28 28 27 26 24 23 23 22 22 22 22 21 21 21 19 16 12 12 12 12 13 12 11 10 9 8 7 5 6 6 5 6 5 7 9
29 28 26 26 25 24 24 23 21 25 27 27 26 25 24 24 23 20 18 18 17 15 15 14 11 11 12 12 11 10 9 8 9 6 5 4 5 4 5 4 3 4 6
27 27 26 25 25 24 24 23 23 22 21 22 24 24 22 20 20 22 23 22 18 17 14 12 11 11 12 10 9 8 7 7 7 4 4 4 4 4 3 2 2 3 5
26 26 26 26 26 26 25 25 24 23 21 21 22 23 23 22 22 21 20 18 16 15 15 14 14 13 11 10 10 8 7 6 4 3 2 2 2 3 2 2 2 2 3
24 24 24 24 23 23 23 22 22 22 21 21 19 17 17 17 14 14 15 15 15 14 13 13 13 12 10 8 8 6 5 4 3 2 2 1 2 1 1 1 2 2 2
21 20 20 20 20 20 19 19 19 18 17 16 15 16 16 14 14 14 13 12 12 12 11 10 9 8 7 6 5 4 2 1 0 -0 -0 1 1 -0 1 2 3 2 2
19 18 18 17 18 17 16 16 16 15 15 14 14 14 14 13 12 10 8 8 8 8 8 7 5 3 3 1 0 -0 -1 -2 -2 -1 -1 -0 1 2 2 2 2 2 2
16 16 15 15 15 14 14 14 13 13 12 11 11 10 9 9 8 7 6 4 3 2 1 -1 -2 -3 -3 -3 -3 -2 -3 -2 -0 1 0 0 1 1 2 2 2 2 2
14 14 13 12 12 11 10 10 10 10 9 8 7 7 6 5 4 2 -1 -2 -1 -3 -5 -5 -5 -4 -4 -4 -4 -3 -2 -1 0 1 2 1 0 1 1 1 2 2 3
11 10 9 8 8 7 5 5 5 5 4 4 3 3 3 2 -0 -2 -3 -4 -4 -5 -5 -5 -5 -4 -5 -5 -5 -4 -3 -1 0 0 -0 0 0 0 0 1 1 2 3
8 7 6 5 4 3 1 0 -0 -0 -0 -0 -2 -2 -1 -1 -2 -4 -4 -4 -4 -5 -5 -5 -6 -6 -6 -5 -4 -2 -2 -3 -2 -2 -1 -0 -0 -0 0 1 2 3 3

GFSGL_sfc_30mbdewp_069.txt.gz
Dewpoint
51 51 51 51 51 50 50 50 51 51 52 52 51 51 51 52 53 54 55 56 56 56 55 54 53 53 50 48 48 46 45 45 43 41 41 40 40 40 39 39 39 39 38
52 52 51 51 51 50 50 50 51 51 52 52 52 52 52 53 55 55 55 55 55 54 53 52 52 49 48 46 46 44 44 43 42 40 40 39 39 39 39 38 36 34 35
51 52 51 51 51 50 51 51 52 52 52 54 54 53 53 53 54 56 55 55 54 53 53 50 48 47 45 44 44 43 42 41 41 39 39 38 36 36 35 34 34 32 30
50 51 51 51 51 51 51 51 51 51 52 52 52 54 54 54 54 55 55 54 52 51 50 48 46 45 44 44 43 42 41 40 39 37 36 34 34 33 33 30 25 23 19
50 50 50 51 51 50 50 50 50 50 51 52 53 55 56 56 54 54 52 51 49 46 46 45 45 44 44 43 41 40 39 38 36 35 33 32 31 26 22 20 18 16 17
50 50 50 50 51 50 50 50 50 51 52 54 56 56 53 53 52 51 50 48 46 44 42 41 41 40 39 39 38 37 37 35 33 32 30 26 21 18 17 18 18 15 11
50 50 51 51 51 52 51 51 51 53 54 55 55 54 52 51 48 47 47 46 43 42 39 37 34 33 31 28 25 24 22 21 23 22 20 17 16 17 20 19 17 19 17
51 51 51 52 52 52 53 53 54 55 55 54 52 51 48 45 45 44 43 42 40 37 35 33 31 28 25 21 20 20 20 21 21 20 20 19 20 21 22 21 21 19 16
51 52 52 53 53 54 54 54 50 50 49 47 46 44 43 40 41 39 38 35 33 31 29 28 27 25 25 21 19 18 19 20 19 18 18 18 19 20 21 18 14 11 13
51 52 53 54 54 53 51 48 47 46 44 43 41 40 39 36 36 35 34 31 29 27 26 25 24 23 23 21 19 17 15 16 14 11 12 15 15 15 16 13 12 12 11
53 53 52 51 50 48 46 45 43 41 38 36 35 35 35 34 33 32 31 29 25 24 22 20 22 25 25 23 20 19 18 15 15 12 11 13 13 12 12 12 12 13 13
49 48 47 46 45 44 42 40 38 36 33 31 30 29 30 31 31 31 29 27 26 22 17 18 22 25 22 21 20 19 17 15 15 13 12 10 10 10 11 9 9 10 12
45 44 43 42 41 41 38 36 34 33 31 30 28 27 26 26 28 28 27 24 21 19 18 21 24 23 20 19 18 17 16 15 13 12 11 9 8 8 8 8 8 9 9
41 40 39 37 37 36 35 35 34 32 31 29 27 25 24 23 23 22 21 20 20 20 22 22 22 20 18 17 17 16 14 13 11 11 10 9 8 9 9 7 8 8 7
38 36 35 33 32 31 30 32 32 32 32 30 28 25 23 22 20 21 21 21 20 21 21 20 18 17 16 15 14 13 12 11 10 10 10 8 6 6 7 7 7 7 6
34 33 32 32 30 29 28 26 28 28 28 28 27 24 23 21 23 24 24 23 22 22 20 17 16 16 14 14 14 12 11 10 9 9 8 6 5 5 6 5 6 6 5
30 29 28 28 27 26 25 24 23 26 28 27 27 26 25 25 25 25 24 24 22 18 17 17 16 16 14 12 11 10 9 9 8 8 7 5 5 4 5 4 4 4 4
27 27 26 25 25 24 24 23 23 22 21 22 25 25 25 24 23 23 22 22 19 18 16 15 14 13 13 12 11 10 9 9 8 7 5 4 4 4 4 4 4 4 4
26 26 26 26 26 25 25 24 24 23 22 21 21 23 23 23 22 21 21 19 17 15 15 14 14 13 12 10 10 9 8 7 6 5 4 4 4 4 4 3 3 3 3
23 23 24 24 23 23 24 24 23 22 21 20 18 18 19 18 17 16 16 16 15 14 13 12 12 11 10 9 8 8 6 5 4 3 3 3 4 4 3 3 3 3 3
21 21 21 21 20 21 21 20 20 19 17 17 16 17 16 15 14 14 13 12 12 11 10 9 9 8 7 6 5 4 3 3 2 1 1 1 2 2 2 3 4 3 3
19 18 18 18 18 17 17 17 17 16 15 14 13 13 13 13 11 10 9 9 9 8 7 6 5 4 3 2 1 1 0 -0 0 0 1 1 1 2 2 2 2 3 3
16 16 15 15 14 14 14 13 13 12 11 11 11 10 10 9 8 7 6 5 4 4 3 2 1 -0 -0 -0 -0 -1 -1 -2 -1 0 0 0 0 1 2 2 2 2 3
14 13 12 11 11 10 10 10 9 8 8 8 7 7 6 6 5 3 3 3 2 1 0 -1 -1 -2 -3 -3 -3 -2 -2 -1 -0 -0 0 0 -0 0 1 1 2 2 3
10 9 8 7 7 6 6 5 5 5 4 4 5 5 4 4 3 2 1 -0 -1 -1 -2 -2 -2 -3 -4 -5 -5 -4 -3 -2 -1 -1 -1 -0 -0 -0 0 1 1 2 2
5 5 5 4 3 2 2 1 1 1 1 1 2 1 1 0 -0 -1 -2 -2 -3 -4 -4 -4 -4 -5 -6 -6 -6 -5 -4 -4 -3 -2 -1 -1 -0 0 1 1 1 2 2

GFSGL_sfc_30mbdewp_075.txt.gz
Dewpoint
50 52 52 53 53 55 55 55 55 55 55 55 55 54 53 52 53 53 52 53 52 53 53 53 53 54 54 55 57 56 55 53 50 50 48 49 45 44 40 42 44 43 42
51 52 53 53 52 53 54 55 56 55 55 54 54 54 53 52 53 53 53 52 52 51 52 52 52 54 54 55 56 55 53 53 51 49 45 46 44 43 42 42 43 42 41
49 51 54 54 54 53 54 55 54 55 55 54 53 53 53 53 53 53 52 52 52 51 52 52 52 53 55 56 54 53 52 52 50 49 44 44 43 43 43 41 40 40 39
50 50 52 54 54 54 54 54 54 54 54 54 54 53 53 52 52 51 51 51 52 52 52 53 53 55 55 55 53 52 51 48 47 46 44 43 42 41 39 38 37 37 34
52 52 52 54 54 53 53 53 53 54 54 54 54 54 54 54 52 52 52 52 52 52 53 55 55 55 54 54 52 51 49 47 45 44 42 41 40 38 38 36 33 30 27
52 53 53 53 53 53 54 54 53 53 53 53 53 53 53 53 52 51 52 52 53 53 53 53 53 52 52 51 51 50 48 46 44 43 40 39 38 37 35 32 26 23 19
52 52 52 53 53 54 53 53 53 53 53 53 52 52 52 53 51 51 51 53 52 53 54 53 49 47 47 43 40 39 38 39 41 40 38 37 36 33 27 25 21 20 18
50 51 51 52 53 53 53 53 53 53 53 54 54 54 53 53 51 51 50 52 53 54 52 48 43 40 39 37 35 33 31 30 30 30 33 31 28 26 22 20 20 20 20
49 50 51 51 51 52 52 53 54 54 54 54 54 54 53 53 50 51 50 48 43 39 38 38 37 34 33 34 32 31 31 29 29 29 28 25 22 20 19 18 18 17 20
46 49 50 50 50 51 52 53 54 54 54 53 49 49 48 47 45 46 44 39 35 33 32 32 32 32 32 31 30 29 26 22 16 12 11 10 14 16 11 14 12 12 13
42 46 49 50 51 51 52 53 54 52 47 44 41 38 38 38 37 38 37 35 31 29 29 28 29 30 30 30 30 30 27 25 21 23 19 15 13 15 15 15 13 13 14
53 53 51 52 52 52 54 52 47 44 40 36 33 31 31 32 33 33 32 31 30 28 27 27 29 29 28 28 26 26 24 26 25 17 14 11 11 12 12 12 12 12 12
51 48 47 45 45 47 45 42 41 39 36 33 32 30 29 30 31 31 30 29 28 28 27 27 27 26 24 24 24 25 26 26 23 21 17 14 14 12 10 9 11 12 11
39 39 38 37 36 36 36 37 37 36 33 31 29 27 26 27 27 28 28 28 28 27 26 25 26 26 24 22 23 24 22 20 19 20 20 17 15 15 13 13 14 15 14
34 33 32 31 31 30 29 31 32 32 32 30 28 27 25 24 26 27 27 26 26 26 25 25 24 23 23 24 22 22 22 20 19 18 18 16 14 14 15 15 14 14 14
31 30 30 30 29 28 27 26 29 29 29 29 28 26 27 28 28 28 29 28 27 27 26 25 25 26 25 24 23 20 18 15 14 13 14 14 13 13 13 13 12 12 13
28 28 27 27 27 26 25 24 23 26 28 28 28 28 27 27 27 27 26 27 27 29 26 26 25 24 22 21 20 16 16 15 12 13 14 14 13 12 11 11 10 11 11
27 27 26 25 25 24 24 24 23 22 21 23 27 27 27 26 26 25 26 25 23 23 22 21 20 18 16 15 15 14 15 15 14 13 11 11 11 10 9 8 8 8 8
26 26 26 26 26 25 25 24 23 22 22 21 22 23 24 25 25 26 27 24 22 21 19 19 20 17 16 15 15 14 13 13 11 12 11 10 11 8 7 6 6 8 8
25 26 27 26 26 26 25 24 23 23 22 22 22 22 24 23 20 21 21 21 20 19 18 16 15 14 14 12 12 11 9 8 7 6 6 6 6 7 7 6 6 5 5
25 25 25 24 23 23 23 21 20 20 19 18 18 20 21 19 17 17 16 16 15 14 14 12 12 10 8 7 6 7 6 6 5 4 4 4 6 4 4 5 5 5 5
21 21 21 20 20 20 20 20 19 18 17 16 16 17 16 16 14 13 11 11 11 9 9 8 8 6 6 5 5 5 4 3 3 3 4 3 2 2 3 4 5 4 4
19 18 18 18 18 17 18 18 17 17 16 15 14 13 12 11 10 9 9 9 8 8 6 5 5 4 4 4 4 4 3 2 3 3 2 2 1 2 3 3 4 4 4
16 15 14 13 13 14 14 13 11 11 11 10 9 8 8 8 8 6 6 5 5 6 6 4 3 2 0 1 2 2 1 2 2 1 1 2 2 2 3 3 3 3 4
10 10 10 10 10 9 9 8 8 8 8 8 7 7 6 6 5 6 5 4 2 3 2 2 3 1 0 -1 -1 -1 0 -0 -2 -2 -1 1 2 3 3 3 4 4 5
7 7 7 7 7 7 7 6 6 6 6 6 5 5 5 4 3 3 2 1 -0 -0 0 1 0 -0 -1 -1 -1 -0 -3 -3 -3 -2 -1 0 1 2 4 4 3 3 3

GFSGL_sfc_30mbdewp_078.txt.gz
Dewpoint
54 55 55 55 55 55 55 55 55 55 55 54 53 53 54 53 52 51 51 51 52 52 52 52 52 53 53 55 55 55 54 54 52 51 51 51 49 49 46 45 45 43 41
52 54 55 56 55 55 56 56 56 56 56 54 54 54 54 53 52 52 51 51 51 51 51 52 52 53 55 55 55 55 55 55 53 51 51 49 49 49 45 43 45 45 44
51 53 54 54 55 55 55 56 56 56 55 56 55 54 54 53 52 52 51 51 51 51 51 52 52 53 53 54 54 54 56 54 53 52 51 48 48 46 44 43 43 44 42
52 51 53 54 54 54 54 55 56 56 56 55 55 55 55 54 53 52 51 51 51 52 52 52 52 52 52 53 54 55 54 53 53 52 51 47 45 45 45 43 42 41 40
53 52 51 53 54 55 54 55 55 55 56 55 55 54 54 54 53 53 52 52 52 52 52 52 53 52 52 53 54 54 54 52 51 50 48 44 43 41 42 42 41 40 39
53 53 52 52 53 54 55 55 54 55 55 55 55 54 54 53 52 51 52 52 52 52 52 52 53 53 53 54 53 53 53 51 49 49 47 44 43 42 41 39 37 36 30
53 53 53 53 53 53 55 54 54 54 54 54 54 54 54 54 52 51 50 52 52 52 52 52 52 52 52 52 43 43 40 41 39 47 45 40 38 38 36 33 31 31 30
50 52 53 54 53 54 54 54 54 54 54 54 54 54 54 54 53 51 49 51 52 53 53 52 52 49 46 44 37 34 33 33 34 34 33 32 33 34 34 33 32 32 31
40 50 52 53 53 53 54 54 54 54 54 54 54 53 53 53 51 50 48 51 51 46 42 43 43 40 37 36 35 32 28 28 31 32 32 31 30 30 31 32 29 26 23
50 53 50 52 52 53 53 54 55 55 54 54 54 52 53 53 49 48 48 46 41 36 33 33 34 34 34 34 33 30 27 25 24 23 22 24 22 19 15 23 19 16 17
47 52 51 52 52 52 53 53 54 55 52 47 43 38 39 41 42 44 44 41 36 32 30 30 31 32 32 31 29 26 24 27 28 27 26 26 28 26 23 22 21 18 18
43 43 43 44 45 51 53 51 50 47 43 39 36 34 33 33 34 36 36 34 32 30 28 29 30 30 30 29 28 28 28 27 26 25 23 21 20 18 17 15 14 14 15
36 35 34 35 37 40 43 44 43 42 40 37 35 33 30 31 31 32 32 31 30 28 28 29 29 27 27 27 28 28 28 27 26 25 23 24 19 15 14 14 15 15 17
33 32 31 31 30 30 34 35 36 35 34 32 30 28 27 28 28 29 29 29 28 27 26 26 24 24 25 26 25 24 23 24 24 23 23 23 22 18 16 17 17 18 17
31 31 30 29 28 27 27 29 30 31 32 30 28 27 25 25 27 28 27 25 25 25 25 24 23 24 24 23 23 24 24 24 22 22 21 20 18 17 16 17 17 16 15
29 29 29 28 27 26 25 25 28 29 29 29 29 28 28 29 29 28 27 27 27 27 26 25 25 24 23 23 22 22 21 19 19 17 17 16 16 16 15 14 14 14 14
27 27 26 26 25 25 25 24 23 26 28 28 28 28 28 28 28 28 28 29 30 28 25 24 23 22 21 21 20 20 17 16 17 16 16 15 14 13 13 12 12 12 12
26 27 26 25 24 24 24 23 23 21 20 22 26 26 27 27 28 28 27 25 23 23 22 21 20 20 20 19 19 18 16 16 14 11 12 12 13 12 10 9 9 9 9
26 27 26 26 26 25 24 24 23 22 21 21 22 23 24 24 24 24 24 22 20 19 19 18 19 18 18 17 16 15 14 13 12 12 12 10 9 9 8 8 7 7 7
25 25 25 24 23 22 21 20 19 19 19 19 21 20 20 18 16 17 17 17 17 17 17 16 16 15 14 12 13 12 10 10 9 8 7 6 8 7 6 5 6 6 7
22 22 23 24 22 21 19 18 18 17 16 16 16 18 17 15 14 14 14 14 13 14 14 15 12 11 10 9 9 9 8 7 7 7 7 7 5 4 5 5 6 6 6
20 19 18 19 19 19 19 19 18 17 16 15 15 16 16 15 14 13 12 12 10 10 11 11 9 9 9 9 7 7 6 5 7 6 4 4 4 4 5 6 5 5 5
17 17 17 17 16 15 16 16 15 15 14 14 14 13 12 12 11 10 10 11 10 10 8 8 6 7 4 5 7 7 6 7 6 4 3 2 3 4 4 5 5 4 4
14 15 14 13 13 13 14 14 13 13 13 12 11 10 10 11 10 9 8 6 7 8 5 6 6 2 2 2 2 1 4 2 1 2 1 1 2 3 4 4 4 3 5
12 11 11 12 11 11 10 10 11 10 10 10 10 9 9 9 9 7 7 5 3 3 3 6 3 2 0 -0 1 2 -2 -3 -3 -3 -1 2 2 2 3 4 5 6 4
9 9 9 10 10 9 9 9 8 8 8 8 8 7 7 6 5 6 5 -0 -1 2 2 2 3 0 0 2 0 -2 -3 -4 -3 -1 -1 0 2 3 4 3 2 3 4

GFSGL_sfc_30mbdewp_081.txt.gz
Dewpoint
56 56 55 56 57 57 56 56 56 56 54 52 53 53 53 54 53 52 51 50 51 51 52 53 53 53 53 53 54 53 53 53 51 51 51 51 51 52 53 52 51 49 46
55 55 55 54 54 55 56 56 56 56 56 54 53 51 51 53 53 52 51 50 49 50 51 52 53 53 53 53 54 53 53 53 52 51 52 50 50 50 50 48 48 46 45
54 55 55 54 54 54 55 55 55 56 56 55 55 53 51 51 52 52 51 50 50 50 50 51 51 51 51 51 52 53 53 53 53 53 51 51 51 48 48 46 47 46 45
52 55 55 55 55 55 55 55 55 55 55 55 55 54 54 53 52 51 51 51 50 50 50 51 51 52 51 51 52 53 54 54 54 53 53 52 49 47 48 47 44 45 45
52 52 53 55 55 56 55 55 56 56 56 55 55 55 54 54 54 53 52 52 51 50 50 51 52 52 52 52 53 53 53 54 54 53 51 51 45 43 45 46 45 44 42
53 52 52 53 54 54 55 55 55 56 56 56 56 55 55 54 54 53 53 52 52 51 50 50 51 51 51 50 50 51 53 53 52 51 51 50 48 46 46 45 42 38 37
51 54 53 53 53 54 55 55 54 54 55 56 56 55 55 55 53 52 51 53 52 52 51 51 51 52 51 51 47 44 41 42 44 50 51 50 46 43 40 37 35 34 32
48 50 52 55 54 53 53 54 55 55 54 54 55 55 55 55 53 51 50 52 53 53 52 52 52 50 50 49 43 38 34 34 35 38 40 37 36 37 36 35 34 32 32
44 46 50 49 49 54 53 53 54 55 54 54 54 54 54 55 53 52 49 50 51 52 48 48 51 49 46 43 41 35 31 30 33 33 33 33 33 34 34 33 31 30 28
42 44 44 44 44 46 51 55 54 54 54 54 54 54 54 54 53 51 50 52 49 43 38 38 40 43 39 38 37 32 29 28 28 28 27 28 30 30 31 32 31 28 27
39 39 39 38 39 41 44 51 55 55 54 54 51 44 43 44 45 48 47 47 45 39 36 33 33 35 34 33 32 31 28 27 27 27 27 27 27 27 27 27 27 26 24
36 35 34 34 33 34 37 41 44 50 50 45 41 36 34 35 36 37 39 40 37 34 30 30 31 31 30 30 29 29 29 28 27 26 26 25 24 22 20 19 18 17 16
33 32 31 30 29 30 30 32 36 38 39 36 36 32 30 30 31 32 31 31 30 29 29 30 30 29 28 28 28 28 28 27 26 24 23 22 23 24 24 23 23 20 19
31 30 29 27 27 27 28 29 29 30 33 32 30 28 28 27 27 28 28 27 26 25 25 25 25 25 25 25 25 25 25 25 24 22 22 23 24 23 21 20 19 18 17
29 28 27 26 26 26 27 27 27 28 29 29 28 28 26 25 26 26 25 24 24 24 25 25 23 23 22 22 23 23 22 22 21 21 21 20 20 20 18 17 16 15 15
26 26 26 26 25 25 24 24 28 28 29 29 29 28 28 28 28 28 28 28 28 27 25 23 22 22 21 20 19 18 19 20 20 20 19 18 17 15 14 14 14 13 13
25 25 24 24 24 23 23 22 21 25 27 28 29 29 29 29 30 29 28 27 27 25 21 21 20 20 19 19 18 18 17 18 18 16 14 14 14 14 12 11 11 10 9
26 25 25 24 23 23 22 22 21 20 19 20 24 25 26 27 26 26 25 23 20 21 20 19 18 18 18 17 17 16 16 14 14 15 14 11 10 10 10 9 8 7 7
24 23 23 22 22 22 22 22 21 21 20 19 19 19 21 21 21 21 20 18 17 16 16 16 16 16 16 16 15 14 13 11 10 8 8 8 7 6 6 6 5 6 6
21 23 22 21 20 19 18 17 17 17 16 15 15 15 16 15 13 13 14 14 15 15 14 14 14 13 13 12 11 11 10 9 8 8 7 5 4 5 5 5 6 6 6
19 19 19 19 19 19 18 16 16 15 14 14 14 15 15 12 12 11 11 10 11 11 11 11 10 10 9 9 8 7 7 7 7 5 4 3 2 3 5 5 5 5 6
19 18 17 17 17 16 16 16 15 14 13 12 13 13 13 12 11 10 9 9 9 9 9 9 7 6 7 7 7 6 5 5 3 2 2 2 3 4 4 4 4 3 3
14 14 14 15 15 14 14 14 13 12 12 12 11 10 9 8 8 7 7 8 6 6 7 5 3 3 3 2 2 5 2 1 1 -0 0 0 1 2 2 2 2 2 2
13 13 12 11 11 11 11 10 10 10 10 10 9 9 8 8 6 4 3 4 4 4 6 3 2 1 -1 -2 1 2 -0 -3 -3 -4 -4 -2 -0 1 0 1 2 3 4
11 10 10 10 10 9 7 7 8 7 7 6 7 6 6 6 5 2 -1 -1 1 4 4 2 1 -1 -0 1 -1 -3 -4 -5 -5 -4 -3 -3 -2 -2 0 2 3 1 1
8 8 8 7 7 5 4 5 5 4 2 3 5 2 1 3 3 -1 -2 -1 0 0 -0 -0 1 1 1 0 -2 -3 -3 -1 -1 -1 -1 -1 -2 -1 -1 -1 0 1 2

GFSGL_sfc_30mbdewp_084.txt.gz
Dewpoint
55 55 55 55 56 56 55 55 55 55 54 53 53 52 53 54 54 54 54 54 54 54 54 53 52 52 52 52 53 53 52 52 50 50 51 52 51 52 53 53 52 52 51
55 55 54 55 55 56 56 56 56 55 55 54 53 53 52 52 54 53 53 52 52 52 53 53 53 52 52 51 52 52 52 52 51 49 50 51 51 52 52 53 52 52 52
56 56 55 56 56 56 56 56 56 56 56 55 53 53 53 52 52 53 52 52 51 50 50 51 51 52 51 52 52 51 52 52 52 51 50 51 51 50 50 49 49 49 49
54 55 55 55 55 55 55 56 56 56 56 56 55 53 52 52 52 52 52 51 50 50 50 50 50 51 51 51 52 52 52 52 52 52 51 51 52 50 50 49 48 47 48
53 55 55 55 55 55 54 54 55 55 56 55 55 55 54 53 51 51 52 52 51 50 50 50 50 50 51 51 50 50 50 50 50 51 51 51 51 46 48 49 49 49 45
53 55 55 55 55 55 55 55 55 55 54 55 55 55 55 54 53 50 51 51 51 51 50 50 50 49 49 49 49 49 50 50 50 50 50 50 51 49 49 49 47 42 40
47 48 52 51 54 55 56 56 55 55 55 55 55 55 55 55 53 52 51 52 52 52 51 51 50 50 49 50 48 47 47 47 48 51 51 51 51 51 49 46 44 42 38
42 45 46 46 47 48 50 55 55 55 55 55 56 55 55 55 54 52 51 52 53 53 53 52 51 51 50 50 49 47 45 41 41 42 44 46 42 42 44 42 38 33 33
38 39 40 41 43 44 45 46 50 55 55 55 55 55 56 56 54 52 51 52 53 53 53 53 52 51 51 49 47 43 36 33 34 34 34 34 34 35 36 35 33 33 29
36 35 35 36 37 39 40 42 45 47 55 55 55 55 55 55 55 52 51 53 52 52 53 47 46 49 51 48 49 41 37 30 30 29 29 29 29 30 31 32 32 30 27
34 33 32 31 31 33 35 37 41 42 44 54 54 45 43 40 42 43 47 52 52 50 46 39 36 38 38 36 37 36 31 29 28 27 26 26 25 24 24 24 27 28 26
32 30 29 28 28 29 30 32 34 36 38 37 36 33 32 32 33 34 37 41 44 41 33 31 31 31 31 30 30 29 29 28 27 25 23 23 23 23 25 25 26 25 25
30 28 27 27 27 28 28 28 29 32 33 32 31 29 29 30 30 30 31 31 31 30 30 30 29 29 28 28 28 28 27 26 24 23 22 22 23 24 25 24 25 25 24
28 27 26 26 25 26 27 28 27 28 29 29 29 27 27 26 26 25 25 26 26 25 25 25 25 25 25 25 24 24 24 24 23 22 21 22 23 21 21 22 20 20 19
26 26 26 25 24 24 26 27 27 28 28 27 27 26 25 24 25 26 25 25 25 26 25 24 23 22 21 21 21 21 22 21 20 21 20 19 18 18 18 19 17 15 15
24 24 25 24 23 23 23 23 25 26 28 29 30 28 28 29 29 29 29 28 27 26 23 21 20 20 18 18 18 18 19 19 19 18 17 17 16 16 14 13 13 12 11
24 24 23 22 22 21 21 20 19 20 20 23 25 27 28 27 27 26 26 25 25 22 20 19 19 18 18 18 17 16 15 16 17 16 16 15 13 12 11 10 9 8 8
22 21 22 22 22 21 21 21 19 18 17 17 19 21 22 22 22 22 22 19 17 18 17 16 16 16 17 16 15 15 15 15 14 12 11 11 11 10 8 7 6 6 6
21 21 20 19 18 18 18 17 16 16 15 15 16 16 17 19 18 18 18 15 14 14 14 14 14 14 13 13 13 12 10 9 9 9 8 7 7 6 6 6 6 6 6
19 19 19 18 17 16 16 15 14 14 13 12 12 13 14 11 10 10 11 12 11 11 11 11 11 11 11 11 10 9 9 9 8 6 4 3 4 5 5 5 4 5 6
17 17 17 16 16 16 15 14 13 12 11 11 11 12 11 10 9 8 8 8 9 9 9 8 8 8 8 7 7 6 5 4 4 3 3 3 3 3 4 4 3 3 4
17 16 16 15 15 14 14 13 12 11 11 10 9 8 8 8 7 7 6 6 6 7 6 5 5 5 5 5 4 3 1 0 -0 -0 0 1 2 2 2 1 1 1 2
14 13 12 13 12 12 11 11 10 9 8 8 7 6 4 4 4 4 4 4 3 2 2 1 0 -0 1 1 2 1 -0 -1 -2 -3 -3 -2 -0 -0 -1 -0 1 1 1
11 11 10 9 9 9 7 7 7 7 7 7 6 5 3 1 -0 -0 1 2 2 2 1 -1 -2 -1 0 -1 -1 -1 -3 -5 -4 -4 -3 -2 -2 -2 -1 0 1 1 0
9 8 7 6 6 5 5 4 4 4 4 3 3 3 2 -1 -3 -3 -1 0 1 1 1 -1 -1 -0 -1 -2 -4 -4 -4 -3 -3 -3 -3 -4 -3 -3 -2 -1 -2 -1 -1
7 7 6 5 3 3 3 2 0 1 2 1 -0 -0 -0 -1 -3 -4 -4 -3 -3 -3 -1 0 0 -0 -1 -2 -2 -2 -2 -3 -5 -5 -6 -5 -4 -4 -4 -3 -2 -1 -0

GFSGL_sfc_30mbdewp_087.txt.gz
Dewpoint
55 56 56 56 56 56 55 55 55 55 54 52 53 53 54 54 55 54 54 54 54 53 53 53 53 53 53 53 53 53 52 52 49 50 50 50 50 51 52 52 51 51 51
55 55 55 56 56 56 55 55 56 55 55 54 52 52 52 53 54 54 54 54 54 54 54 53 53 53 53 52 52 52 51 50 49 49 50 50 51 51 52 52 52 52 52
55 55 55 55 56 55 56 56 56 56 55 55 54 53 52 52 53 53 53 53 53 53 53 53 53 53 52 52 52 51 51 51 51 51 49 50 51 51 51 51 52 52 53
56 55 55 55 55 54 55 55 56 56 55 55 55 54 53 53 51 51 52 52 52 52 52 52 52 52 52 51 51 51 51 51 51 51 50 50 50 51 51 50 49 49 50
55 56 56 56 56 56 56 56 56 56 56 55 55 55 54 53 53 52 51 51 51 51 51 51 51 51 51 51 50 50 51 50 50 49 49 50 50 49 50 50 50 50 50
48 51 53 55 55 55 55 56 55 56 56 55 55 55 55 53 52 51 52 52 52 51 51 50 50 49 49 47 48 48 48 49 49 49 48 48 48 49 50 50 50 49 46
41 42 43 45 46 47 50 55 55 54 55 55 55 55 55 55 53 51 49 51 52 52 52 52 51 51 49 49 47 46 47 47 48 49 48 48 48 49 50 50 50 49 48
36 36 38 39 41 43 45 45 46 49 55 55 55 55 55 55 54 52 50 50 51 52 52 51 51 51 50 49 49 48 47 48 47 46 48 49 50 48 49 50 50 42 33
34 33 34 33 36 37 38 39 41 43 46 48 55 55 55 55 54 53 51 52 52 52 52 53 52 52 51 50 49 49 48 41 35 36 34 34 34 36 40 41 38 37 31
32 31 30 29 31 32 33 35 36 39 41 44 46 44 40 39 36 37 45 53 52 52 53 53 52 52 52 50 49 49 47 38 32 29 28 27 28 28 29 31 36 36 28
30 29 28 28 29 29 30 31 33 35 38 37 35 32 31 31 32 33 36 41 51 52 51 50 37 38 39 41 44 49 47 31 28 26 25 25 26 26 26 26 26 27 23
29 27 27 27 28 28 28 29 30 32 32 32 31 30 29 28 29 30 32 33 38 35 32 31 31 31 31 31 31 31 29 27 25 24 23 23 22 22 23 24 25 24 25
28 26 26 26 26 27 27 27 27 29 29 29 28 27 26 26 26 28 28 28 29 28 28 29 28 27 26 27 27 27 26 25 24 21 20 20 22 23 24 23 24 23 23
26 26 25 24 24 24 26 26 26 27 26 25 25 25 25 25 25 26 26 26 27 26 26 26 25 24 24 24 24 24 24 24 22 21 20 20 20 19 19 21 19 20 19
25 25 25 24 24 23 23 23 24 26 27 25 25 25 24 25 27 28 27 25 25 25 24 22 21 20 20 20 20 20 20 20 19 19 18 17 17 17 16 18 18 17 15
23 23 23 22 21 22 21 21 22 22 24 25 25 25 25 25 25 25 25 25 24 22 20 18 17 17 17 16 16 16 17 17 17 17 16 16 15 14 13 14 14 13 11
22 21 21 21 20 20 19 18 17 17 19 20 22 22 23 23 23 23 22 21 20 18 16 16 16 15 15 15 15 15 14 15 15 14 14 13 13 12 10 8 8 8 7
20 19 18 18 17 17 16 15 15 14 14 14 17 19 20 21 20 20 18 16 14 14 14 14 13 14 14 13 13 12 12 12 11 10 10 10 10 9 8 7 7 8 6
18 18 17 16 16 15 15 14 13 12 12 12 12 12 14 15 15 14 13 12 11 11 11 11 12 12 11 11 11 10 9 8 8 7 7 7 7 7 6 6 6 6 5
16 16 16 16 15 14 13 12 11 11 10 9 9 10 10 9 8 8 9 9 9 9 9 9 9 9 10 10 9 9 7 7 6 5 4 4 5 5 4 4 4 3 4
16 16 15 15 14 13 13 12 11 10 9 8 7 8 8 6 6 6 6 6 6 5 6 6 5 6 7 6 5 3 2 2 2 2 3 2 2 3 2 2 2 3 3
14 14 14 13 12 12 11 10 10 8 7 6 6 5 4 4 4 3 2 2 2 3 3 2 2 3 3 3 1 0 -1 -1 -1 -1 0 1 0 -0 -0 1 0 0 1
11 10 11 10 9 9 8 8 8 7 6 5 4 3 2 1 2 1 0 -0 0 -1 -1 -2 -1 -0 -1 -1 -1 -2 -3 -3 -4 -4 -3 -2 -1 -2 -1 -0 -0 -1 -1
9 9 8 7 7 6 5 5 5 4 4 3 2 0 -1 -2 -1 -1 -1 -0 -0 -1 -3 -2 -1 -1 -2 -4 -4 -3 -4 -5 -4 -5 -5 -4 -3 -2 -2 -1 -2 -2 -1
7 6 5 4 4 3 2 2 2 2 1 1 0 -1 -2 -2 -3 -4 -3 -2 -2 -2 -1 -2 -2 -2 -3 -5 -4 -3 -2 -3 -4 -5 -5 -5 -4 -4 -4 -3 -3 -2 -2
5 4 3 3 2 1 -0 -0 -0 -1 -1 -2 -3 -3 -4 -4 -5 -6 -5 -4 -3 -3 -2 -2 -2 -1 -2 -2 -1 -3 -4 -5 -6 -6 -6 -5 -5 -5 -5 -4 -3 -3 -2

GFSGL_sfc_30mbdewp_090.txt.gz
Dewpoint
53 54 54 55 55 56 55 55 54 53 53 53 54 54 54 54 54 54 54 54 54 53 53 53 52 52 51 51 52 51 52 51 47 48 50 50 50 50 51 52 52 51 51
54 54 54 54 55 56 55 56 56 55 53 52 53 53 53 54 54 54 53 53 53 53 53 53 52 52 52 51 51 51 50 51 50 48 50 50 50 51 51 51 51 51 51
55 54 54 54 56 56 55 55 56 56 55 54 53 52 52 53 53 54 54 54 53 53 53 53 52 53 52 52 52 52 52 52 51 50 49 50 50 51 51 51 51 52 52
55 55 55 55 55 55 55 55 56 56 55 55 55 54 53 53 52 52 53 53 53 53 54 53 53 53 53 52 52 52 52 51 51 51 50 50 50 51 51 50 50 51 51
56 55 55 55 55 55 55 55 55 55 55 55 55 55 54 53 53 52 52 52 52 52 52 53 53 53 53 53 52 51 51 51 50 49 49 49 49 50 49 50 50 50 50
45 45 46 47 53 54 55 55 55 55 55 55 55 55 54 54 53 52 52 51 51 51 51 51 52 51 50 49 50 50 49 50 50 49 49 48 48 48 49 49 49 49 48
38 38 40 42 43 44 45 46 47 50 55 56 56 55 55 55 54 52 50 52 52 51 51 51 51 51 50 50 49 47 47 47 48 50 49 48 48 48 48 49 49 49 48
33 32 33 36 37 38 39 40 41 43 45 47 49 53 55 55 47 50 51 51 52 52 52 52 52 52 52 51 50 49 47 47 47 46 48 48 49 50 50 49 49 49 40
30 30 30 31 32 33 34 35 36 39 41 43 42 38 37 38 34 35 40 49 52 52 53 52 52 52 52 50 50 50 49 49 39 42 39 34 33 33 36 44 43 42 38
29 28 28 29 30 30 31 31 33 36 38 38 34 32 31 32 32 34 35 41 47 51 52 52 48 39 37 44 49 50 49 48 35 29 28 28 28 28 28 28 34 41 36
28 27 28 28 29 29 29 30 31 33 33 32 31 29 28 29 29 31 33 37 39 36 32 31 31 32 34 35 38 39 38 31 28 27 25 25 24 24 24 25 25 26 24
28 26 26 27 27 27 28 28 29 30 29 29 28 27 27 27 28 29 29 30 31 29 28 28 29 29 29 30 29 29 29 27 25 23 22 22 22 22 22 23 23 23 23
26 25 24 24 24 26 26 26 27 26 26 26 25 24 25 26 27 27 27 27 26 26 26 25 24 24 23 24 25 25 26 24 23 20 19 19 20 21 23 22 23 20 20
24 24 24 23 22 22 23 24 25 25 24 24 23 23 24 25 25 25 25 24 24 23 23 23 23 22 21 21 21 21 21 20 19 18 17 18 19 18 18 20 19 19 15
24 23 23 23 22 22 22 23 23 25 25 23 24 24 23 23 25 24 24 23 22 21 19 18 17 17 17 17 17 18 18 18 17 18 17 16 15 15 15 17 17 15 13
22 21 21 21 21 20 20 20 21 22 22 23 23 23 24 24 23 23 22 21 19 18 16 15 15 15 15 15 14 14 15 15 16 15 15 14 13 13 12 13 12 12 10
19 19 19 18 17 17 16 15 14 16 18 19 20 21 22 22 21 21 19 18 16 15 14 14 13 13 13 13 13 12 12 13 13 13 12 12 11 10 9 9 9 8 7
16 16 16 15 15 14 13 12 12 11 11 11 14 17 19 19 18 17 15 13 11 12 12 11 11 12 11 11 11 10 10 9 9 9 9 9 9 8 7 6 7 7 5
16 15 14 13 13 12 12 11 10 9 9 8 8 9 10 13 12 12 11 9 9 9 9 9 10 10 10 10 10 9 8 7 7 7 7 7 7 6 5 5 5 4 3
14 14 13 12 12 11 11 10 9 7 6 5 5 6 6 5 5 5 5 5 5 6 6 6 7 7 7 7 6 6 5 5 5 5 4 4 5 5 4 3 3 3 3
13 13 13 12 12 11 10 9 8 6 5 4 3 4 4 3 2 2 2 2 2 2 2 3 3 4 4 3 2 1 -0 0 1 2 2 2 0 0 1 2 2 3 2
12 12 11 11 9 8 8 7 5 4 4 3 3 2 2 2 1 1 -0 -0 0 1 1 1 1 1 1 0 -1 -2 -3 -3 -2 -2 -0 -0 -0 -0 1 0 -1 -1 0
9 9 8 7 7 6 5 5 4 3 2 1 1 0 0 -0 -0 -1 -1 -2 -2 -2 -1 -1 -1 -2 -3 -4 -4 -4 -4 -5 -4 -5 -3 -2 -1 -1 -1 -1 -2 -1 -1
7 6 6 5 4 3 2 2 2 2 1 -1 -2 -2 -2 -3 -3 -3 -3 -3 -2 -3 -4 -3 -2 -3 -4 -5 -4 -2 -3 -4 -4 -5 -6 -4 -2 -2 -2 -2 -2 -2 -2
5 4 3 2 1 1 0 0 -0 -1 -1 -2 -3 -3 -3 -3 -4 -5 -5 -4 -3 -3 -3 -4 -3 -3 -4 -4 -3 -4 -5 -6 -7 -6 -6 -5 -4 -4 -4 -3 -3 -2 -2
3 3 2 1 -0 -0 -1 -1 -2 -3 -2 -4 -4 -6 -6 -6 -6 -6 -5 -4 -4 -3 -3 -4 -3 -3 -3 -1 -2 -4 -5 -6 -6 -6 -7 -6 -5 -5 -5 -4 -4 -3 -2

GFSGL_sfc_30mbdewp_093.txt.gz
Dewpoint
54 55 55 54 55 55 55 55 55 55 55 56 56 56 55 55 54 54 53 50 53 52 53 52 51 51 51 51 53 52 51 51 49 49 49 50 52 53 52 53 52 52 51
54 53 53 54 55 56 56 56 56 55 55 55 56 55 55 55 55 55 55 54 53 51 51 54 53 53 53 52 52 52 52 51 50 48 49 50 52 52 51 51 51 51 51
54 54 54 54 55 54 56 56 56 55 55 54 54 54 54 54 54 55 54 54 54 54 54 53 53 53 53 53 52 51 52 51 51 51 50 50 50 51 52 52 51 52 52
54 55 54 54 54 56 56 55 56 56 56 55 54 54 54 54 54 54 54 54 54 54 54 54 54 54 54 54 54 53 53 53 53 52 51 51 51 51 52 51 51 52 52
55 54 55 55 56 56 56 55 55 56 55 55 55 55 54 54 53 53 53 53 53 54 54 54 54 54 53 53 53 53 53 53 52 52 51 51 51 51 51 51 51 51 51
42 43 45 47 47 48 49 54 55 55 55 55 55 55 55 55 53 52 53 53 53 53 53 54 54 53 53 51 51 52 52 53 52 51 50 49 49 49 49 50 50 49 49
35 36 38 40 41 41 43 44 44 46 48 50 51 53 55 48 36 41 48 52 53 52 52 52 52 53 52 53 51 49 49 49 49 51 50 50 49 50 50 49 49 49 49
32 31 33 35 36 37 38 38 39 42 44 44 40 38 41 34 34 34 36 45 51 53 53 52 52 52 52 52 51 51 50 50 49 48 49 51 50 44 46 50 50 50 50
29 29 30 31 32 33 34 35 37 40 39 36 34 33 34 32 32 33 34 41 47 50 52 45 37 40 37 41 49 51 50 50 36 41 35 31 31 31 32 38 42 42 45
28 29 30 30 30 31 32 33 35 35 34 32 30 30 30 30 31 32 34 39 41 37 33 31 31 33 33 36 41 43 46 45 33 29 28 27 27 27 27 27 30 36 36
27 27 28 28 28 30 30 31 32 32 31 30 28 28 28 29 29 29 30 32 32 29 28 28 28 29 30 31 32 33 34 30 28 27 25 24 23 23 22 22 22 24 24
26 24 24 25 26 27 28 28 28 29 28 27 27 27 27 28 28 27 27 27 27 26 25 26 26 25 25 26 26 26 27 25 24 21 21 20 21 21 21 21 21 21 21
25 23 23 23 23 24 25 26 26 26 26 25 25 25 25 26 27 26 25 25 24 25 25 23 23 23 23 23 22 22 22 21 20 18 19 19 21 22 24 23 22 21 20
24 24 23 22 22 22 23 24 24 24 24 23 23 24 24 25 25 25 25 25 24 24 23 22 21 21 21 21 22 23 22 22 20 20 20 20 21 19 20 20 19 19 17
22 22 22 21 21 20 22 23 23 25 24 23 23 24 23 23 24 23 23 23 22 20 21 21 20 20 20 20 19 20 20 20 20 20 19 18 18 18 17 17 15 13 11
21 20 21 20 19 19 19 19 21 22 22 23 24 24 24 24 23 22 20 19 18 19 19 18 18 18 17 17 17 17 17 17 17 17 16 15 13 12 11 11 10 9 7
20 19 19 18 18 17 17 17 16 16 17 17 20 20 21 21 20 18 17 17 16 17 16 16 16 16 15 15 14 14 13 12 11 11 11 10 9 9 9 8 8 7 5
17 16 17 17 16 16 16 15 15 15 15 14 14 16 17 17 17 16 15 15 14 14 14 14 13 13 12 11 10 9 9 9 9 8 9 9 9 8 6 5 6 6 3
17 16 15 15 14 14 14 13 13 12 12 12 12 11 10 12 12 12 12 12 12 11 11 10 11 10 10 9 9 9 8 8 8 8 7 7 7 6 5 5 4 3 3
15 14 14 15 14 13 13 12 11 10 9 8 8 8 9 9 8 7 7 8 8 8 8 7 7 7 8 7 7 7 6 6 6 5 6 6 6 5 4 3 4 3 1
15 14 13 13 12 12 11 9 8 7 6 5 5 5 4 5 4 4 4 5 5 5 6 5 6 6 5 5 4 4 4 4 4 4 4 4 5 4 3 3 3 2 1
13 12 11 11 10 9 8 7 6 5 4 3 4 2 3 4 2 2 2 2 3 3 4 4 3 2 2 2 2 2 1 1 2 3 3 3 3 3 3 2 2 2 2
11 10 9 8 7 6 6 5 4 4 3 3 2 2 2 2 2 2 2 2 2 2 2 2 1 0 0 1 1 0 -1 -1 -1 0 2 2 2 2 3 2 1 1 1
9 9 6 7 6 5 5 5 4 2 2 2 2 2 1 1 2 1 1 2 2 2 2 1 -0 -1 -1 0 0 -0 -1 -1 -1 -1 -0 1 1 1 2 1 1 1 1
7 6 6 5 5 5 4 3 3 3 3 2 2 1 1 1 0 0 0 0 0 1 0 0 0 -0 -1 -1 -2 -2 -2 -3 -3 -3 -1 -0 -0 -0 0 0 1 1 1
5 5 4 4 3 3 3 2 2 2 2 1 1 0 -1 -2 -2 -1 -1 -1 -1 -1 -1 -1 -1 -1 -0 -1 -1 -2 -4 -4 -3 -4 -2 -1 -1 -1 -0 -0 -0 0 0

GFSGL_sfc_30mbdewp_099.txt.gz
Dewpoint
57 57 57 56 55 55 56 56 56 57 57 57 57 56 55 54 54 53 54 52 53 52 52 52 51 52 52 53 53 52 51 50 49 47 47 50 51 52 52 52 53 53 54
57 57 56 56 55 56 56 56 56 57 57 58 57 56 55 54 54 53 53 51 50 50 50 51 49 49 51 52 52 53 54 53 50 50 49 49 50 49 50 50 49 49 51
57 56 56 55 54 55 56 56 57 56 56 57 57 56 55 54 54 53 53 52 51 51 51 51 50 51 50 51 50 49 50 50 50 51 49 48 49 51 52 53 53 53 53
56 56 56 55 55 56 55 56 56 56 56 55 57 56 56 56 54 53 52 52 52 52 53 52 50 51 49 49 49 49 51 52 51 51 50 50 51 53 53 52 52 53 53
46 48 52 55 55 55 55 56 55 56 56 56 56 57 56 56 48 50 54 54 54 53 54 54 53 53 50 51 50 50 51 52 53 52 53 53 53 53 52 53 53 53 53
39 40 43 45 45 46 49 50 55 55 54 53 50 53 43 37 35 37 44 56 56 55 55 55 55 54 54 53 52 51 53 54 53 52 52 52 53 53 54 53 53 52 51
37 37 38 40 41 42 44 44 43 42 42 42 39 37 35 34 33 35 37 48 54 54 49 50 52 45 43 44 49 50 49 49 46 50 51 51 52 44 43 49 52 52 52
34 34 36 37 37 39 40 39 38 37 36 36 36 34 33 31 33 35 39 45 41 36 35 36 37 36 34 36 41 46 45 34 35 36 34 31 30 30 32 38 39 40 43
31 32 33 35 35 37 36 36 35 34 33 32 33 33 31 30 32 34 43 38 34 32 31 31 31 31 31 34 40 43 36 30 31 29 28 28 28 27 28 35 33 34 38
31 31 32 33 33 34 35 35 34 33 32 32 31 31 31 29 30 31 38 35 32 29 28 28 28 28 29 31 34 37 30 28 27 26 25 25 25 26 27 26 27 30 31
31 29 31 32 32 32 33 34 35 34 33 32 31 31 29 29 28 29 31 32 30 28 28 27 28 27 27 27 28 29 28 27 26 25 25 25 25 25 26 26 26 26 26
30 30 27 28 29 30 31 31 31 32 31 31 30 29 30 28 27 27 27 29 29 28 27 28 28 26 27 27 27 26 26 27 26 26 25 25 26 26 26 27 26 26 26
26 26 28 27 26 26 28 28 29 30 29 28 28 27 27 29 30 27 26 26 26 26 27 26 26 26 26 26 26 27 28 29 28 26 25 25 26 27 27 28 28 28 24
25 24 23 23 23 24 24 24 25 27 27 27 27 26 25 24 26 29 29 29 28 28 27 28 27 26 25 26 26 27 26 27 26 25 25 25 26 24 23 24 22 23 19
24 24 23 23 21 20 21 23 22 24 25 25 24 24 23 22 23 24 26 27 28 27 28 27 26 25 24 24 23 23 24 24 23 23 23 22 21 21 18 18 16 15 12
23 23 24 24 22 21 20 19 20 21 21 22 23 24 22 22 22 22 23 23 24 26 25 23 23 23 22 21 21 20 18 18 18 18 18 16 15 14 14 14 13 11 7
24 24 23 23 23 23 23 22 20 19 18 19 20 20 20 20 20 21 21 21 22 23 22 21 21 20 18 17 16 15 15 14 14 14 15 15 14 13 12 12 13 11 8
23 24 24 24 24 23 23 22 23 21 20 19 17 17 17 17 18 20 21 21 19 18 17 17 16 15 13 12 12 12 13 13 14 12 13 13 14 12 12 9 7 10 8
22 23 23 22 22 23 23 22 22 21 20 20 19 19 18 16 16 16 17 17 15 13 12 12 13 12 12 12 14 13 12 12 12 13 13 12 13 11 10 9 11 8 7
20 20 22 23 23 21 20 20 19 18 18 15 13 14 17 16 14 14 14 14 13 12 11 10 10 11 11 11 12 11 11 10 10 10 11 11 12 10 9 9 8 7 6
21 20 20 20 19 18 18 17 16 16 14 11 9 9 10 11 11 10 10 10 10 10 11 9 9 9 8 8 9 9 8 9 8 9 8 8 9 8 8 8 7 6 5
15 15 15 15 15 15 14 13 13 11 10 10 10 8 9 10 9 8 9 9 9 9 8 9 8 7 6 7 7 8 7 6 6 6 7 7 7 8 7 7 6 6 6
13 14 12 12 11 11 12 11 11 11 10 10 9 9 9 9 8 8 8 9 8 8 6 7 6 6 6 7 7 6 5 5 5 5 4 6 6 6 7 7 5 5 5
12 12 9 10 11 11 12 11 10 7 8 9 9 8 8 8 8 7 7 6 7 6 6 6 5 3 2 4 5 4 1 1 2 3 4 4 5 5 5 5 5 5 4
11 10 10 10 10 10 10 9 9 9 8 8 8 8 7 6 5 6 6 5 3 5 4 4 4 2 2 2 1 1 -1 -1 -1 -1 1 4 4 3 4 3 4 3 5
8 8 8 8 8 8 8 8 7 7 6 6 6 6 5 5 4 5 4 2 2 2 1 2 2 1 1 2 2 -1 -2 -2 -2 -3 -2 2 3 3 4 5 5 3 3

GFSGL_sfc_30mbdewp_102.txt.gz
Dewpoint
58 58 59 59 56 57 57 58 58 59 58 58 56 56 56 56 56 56 56 56 56 56 56 56 55 54 51 53 53 53 53 52 50 50 50 51 52 53 53 53 55 55 55
58 58 58 58 56 55 58 58 59 58 58 57 57 56 55 55 56 55 55 55 55 55 55 54 54 54 53 53 53 53 53 52 51 49 50 51 50 50 51 51 51 51 52
58 57 57 57 56 55 57 57 58 58 57 57 56 56 55 54 54 54 54 53 53 53 53 53 52 51 50 50 51 52 53 53 53 52 50 50 50 50 49 50 51 51 51
57 57 56 56 56 56 57 57 57 57 57 57 57 56 55 55 54 54 54 54 52 52 52 52 52 52 51 50 50 50 50 51 51 51 51 51 50 50 50 49 50 52 53
41 43 46 53 56 56 56 57 57 56 56 57 57 56 55 52 44 51 53 53 53 53 53 53 53 52 52 52 51 51 50 48 49 50 49 50 51 52 52 53 54 54 54
37 38 40 43 45 47 49 52 52 50 49 47 46 43 39 36 35 38 46 53 53 53 54 54 54 52 51 50 48 48 50 50 50 50 51 53 53 53 51 52 52 52 51
35 35 36 38 39 41 40 41 41 42 41 39 37 36 34 34 35 37 41 48 46 44 43 45 45 39 39 42 45 44 41 39 41 47 49 48 44 36 37 43 47 47 46
33 34 35 35 36 36 36 35 35 36 36 34 33 33 32 33 35 40 42 39 35 34 34 35 35 34 33 35 40 38 32 31 32 32 31 30 30 30 32 36 38 39 40
31 32 33 34 34 34 34 33 34 33 32 32 32 31 31 31 34 38 35 33 31 30 31 31 31 31 32 36 42 34 30 28 30 30 29 29 29 28 29 35 31 34 36
31 31 32 33 33 32 32 32 33 32 32 31 30 30 30 30 32 36 34 32 30 29 29 29 30 30 31 33 34 32 28 27 27 26 26 27 27 27 27 28 28 30 29
31 31 31 32 32 32 32 32 32 32 32 31 29 29 29 29 30 32 33 31 30 28 27 27 29 29 28 28 28 28 27 27 27 27 27 27 27 27 27 27 26 26 26
29 30 29 29 29 30 32 32 32 32 31 30 29 29 29 29 28 29 29 30 29 28 27 28 28 27 28 29 29 29 28 29 28 27 26 26 26 27 28 26 25 24 23
26 25 25 24 27 27 26 26 29 30 29 28 27 26 26 27 30 28 27 27 27 26 27 27 27 27 26 26 27 27 28 28 26 25 25 26 26 25 26 27 28 23 21
25 24 23 22 21 23 24 24 24 25 25 25 24 23 23 24 26 29 29 30 29 29 29 28 27 26 25 25 25 26 26 26 26 26 25 25 24 22 21 21 21 20 18
25 25 24 22 20 20 22 22 22 24 25 22 22 23 22 23 26 28 28 28 29 28 27 26 25 24 24 23 22 22 22 23 22 22 21 20 18 19 17 18 16 15 10
26 25 27 27 25 20 19 19 21 22 22 22 23 23 24 23 24 25 25 25 25 25 24 23 22 22 21 20 20 18 18 18 18 18 18 18 16 15 16 17 16 13 9
25 26 26 25 25 25 27 21 18 19 19 20 20 21 22 23 24 23 21 21 22 22 21 20 19 18 17 16 16 16 16 17 16 17 16 17 17 15 12 11 13 14 11
25 24 24 25 25 25 25 24 24 22 19 19 19 18 18 19 20 21 21 19 17 17 17 17 16 16 16 16 15 15 14 15 16 16 15 15 15 13 12 14 10 7 10
23 25 25 25 25 25 24 24 23 22 19 18 18 20 21 17 17 17 17 17 15 14 14 14 14 15 15 15 16 15 14 13 14 14 13 14 14 13 11 11 10 10 8
22 21 24 24 23 23 23 22 22 20 16 13 12 13 17 16 15 15 15 15 14 14 13 13 13 13 13 14 13 12 13 10 12 11 11 11 11 11 11 10 9 8 7
20 20 20 20 20 20 19 18 18 18 14 11 10 11 12 13 13 12 13 13 13 13 13 11 10 10 10 10 12 10 10 10 9 10 11 11 10 9 10 8 8 9 9
17 16 15 16 16 15 15 15 14 13 12 13 12 10 12 13 12 11 11 12 11 11 12 12 10 11 9 10 9 9 9 8 8 6 6 8 10 8 9 11 8 7 8
15 15 14 15 15 15 14 13 14 13 13 12 12 12 12 10 10 12 11 12 11 10 8 7 5 5 6 11 10 5 4 3 5 6 4 7 7 8 8 10 7 8 4
14 14 12 13 12 13 16 15 9 8 11 13 12 11 11 10 12 9 8 7 11 7 6 8 7 3 2 3 5 2 1 0 2 1 2 5 8 5 4 5 5 4 5
13 12 12 12 13 14 12 11 11 11 11 11 12 10 10 9 9 10 8 5 4 6 7 8 3 3 2 5 2 -1 -2 -1 -1 -2 -1 1 4 5 7 8 8 6 3
10 11 11 12 12 11 11 12 10 9 10 8 9 9 8 8 6 8 6 4 1 3 4 4 3 1 3 2 0 -2 -1 -2 -4 -3 -2 1 5 3 3 2 1 2 4

GFSGL_sfc_30mbdewp_105.txt.gz
Dewpoint
59 59 58 59 60 57 58 58 58 57 57 57 57 56 57 57 57 57 57 57 57 57 57 57 56 56 55 54 52 52 52 53 51 51 51 52 53 54 55 55 55 55 55
49 58 58 59 58 57 58 58 58 57 57 57 56 56 56 56 56 56 56 56 56 56 56 56 56 56 54 53 52 52 53 53 51 50 51 50 50 53 54 53 53 54 55
44 58 58 57 57 57 58 58 59 58 57 57 56 56 56 56 56 56 56 56 56 56 56 55 55 55 54 53 53 53 53 53 53 51 50 51 51 51 50 50 50 51 51
40 43 47 57 57 58 58 58 59 58 57 57 56 56 55 55 55 55 55 55 55 55 55 55 55 54 54 53 53 51 51 52 52 51 51 50 50 50 50 49 49 51 50
37 37 40 44 50 52 54 58 58 58 57 57 56 56 55 54 51 54 54 54 53 53 54 53 54 54 53 52 52 52 50 50 49 50 50 51 51 50 50 51 52 54 53
35 36 37 39 40 42 43 45 47 46 46 45 43 43 41 38 37 41 52 54 54 53 53 53 53 51 50 47 47 46 48 51 49 48 48 48 48 52 49 51 51 50 50
33 34 36 37 36 37 37 37 37 37 37 36 36 35 35 36 37 39 44 48 47 44 44 46 43 39 40 43 38 36 35 35 36 45 49 48 42 35 36 42 45 46 45
32 32 33 35 35 35 35 34 33 33 33 33 32 33 35 36 37 38 37 35 34 33 33 34 35 35 35 40 37 33 31 31 32 32 32 30 30 31 32 36 38 39 34
30 31 31 32 33 34 33 33 33 31 30 30 31 31 31 33 35 35 34 32 30 30 31 32 32 32 35 39 35 31 29 29 31 31 31 31 30 30 31 35 32 35 34
29 30 30 31 31 31 32 32 32 31 30 29 29 29 30 31 33 34 33 31 30 29 30 30 31 31 33 35 33 31 28 27 28 28 28 29 28 27 27 27 28 29 30
29 28 29 30 29 31 31 32 32 31 30 29 28 28 29 30 31 32 32 31 29 28 28 28 30 31 31 31 30 29 27 29 28 28 28 28 27 26 24 24 24 25 23
25 25 25 27 27 28 28 30 31 30 28 28 27 27 28 29 30 30 30 30 30 27 27 28 29 30 30 31 30 30 29 29 27 26 25 25 25 27 24 20 20 20 21
23 23 23 24 24 25 25 26 27 27 26 25 24 24 25 28 29 30 29 29 28 27 28 28 28 27 27 27 27 27 28 27 25 24 24 24 23 22 25 26 21 19 17
23 22 21 21 21 22 23 23 24 23 23 23 23 23 25 26 27 29 29 29 29 28 28 26 25 24 24 23 24 25 25 26 25 24 24 23 21 18 17 18 15 19 14
26 27 22 20 20 21 22 22 22 25 23 22 23 24 24 24 28 29 29 28 27 27 26 25 24 24 21 20 20 20 21 21 20 19 17 15 17 17 18 18 14 11 8
25 26 26 25 20 19 19 21 22 23 23 24 24 24 26 26 27 27 26 26 25 24 22 21 20 19 19 19 18 18 18 18 18 18 18 18 15 15 15 15 15 13 7
24 25 25 25 25 25 19 18 18 20 20 20 21 22 23 26 23 22 21 21 21 20 19 18 17 17 17 16 15 16 16 17 17 16 16 15 15 15 12 10 10 10 11
25 24 24 25 25 24 24 23 22 18 17 19 21 20 20 20 20 19 18 17 16 16 16 16 16 17 17 17 16 15 14 14 14 14 14 14 13 12 11 11 10 8 10
21 24 25 24 24 24 23 22 19 16 14 13 14 15 18 17 17 17 17 16 15 14 15 14 14 15 15 13 14 11 11 12 11 11 10 10 9 10 10 9 8 6 7
19 21 22 22 22 21 20 21 17 13 10 10 10 12 14 13 12 12 13 13 13 13 12 11 11 11 12 13 10 10 9 8 9 10 9 10 10 9 9 7 8 9 8
18 17 17 15 16 17 15 17 16 10 7 8 10 12 12 11 11 10 10 11 11 11 11 10 9 9 10 10 10 7 6 6 6 5 6 8 10 7 10 10 7 8 7
15 16 16 15 13 15 16 15 13 14 11 10 11 12 12 11 10 10 9 6 7 8 8 7 6 7 9 7 5 3 1 1 3 2 2 5 8 5 7 8 8 4 6
15 13 13 14 18 12 9 11 14 12 11 11 11 10 8 9 9 8 9 9 8 7 3 2 1 3 6 4 2 0 -2 -1 0 -2 -1 1 5 3 2 4 6 4 7
13 14 16 13 11 12 12 10 9 12 13 11 9 9 10 9 6 4 3 7 5 4 6 4 1 1 2 1 -1 -1 -1 -2 -3 -4 -3 -2 1 4 5 6 6 5 3
10 12 13 12 11 13 13 11 11 11 9 10 9 9 10 10 9 6 3 3 3 3 5 1 1 2 3 -1 -3 -2 -1 -3 -5 -4 -4 -2 0 3 2 2 1 1 3
9 9 9 10 9 9 9 10 9 9 9 10 9 9 8 5 6 5 0 -2 -1 5 5 2 0 2 1 -1 -1 -2 -5 -5 -5 -4 -5 -2 -0 -1 -2 1 1 1 1

GFSGL_sfc_30mbdewp_108.txt.gz
Dewpoint
43 52 60 60 60 59 58 59 58 58 57 57 57 57 57 57 57 57 57 58 58 58 58 57 56 56 55 54 53 53 53 52 49 51 50 52 53 54 54 54 54 54 54
42 46 58 58 59 58 58 58 58 57 57 56 56 56 56 56 57 57 56 57 57 57 57 57 56 56 55 55 54 53 53 53 49 49 51 51 51 53 54 54 55 55 55
39 41 44 47 57 58 58 58 57 57 57 57 57 56 55 55 56 56 57 56 56 57 57 56 56 56 55 55 55 54 53 53 53 51 50 51 51 52 51 52 52 53 53
37 38 39 41 45 54 58 58 57 57 56 57 56 56 56 56 56 56 56 56 56 56 56 56 56 56 56 55 54 53 53 52 52 52 51 51 51 51 51 50 49 50 50
34 35 37 38 40 42 48 58 58 57 57 57 56 56 55 55 50 54 56 55 55 55 56 56 56 56 56 56 55 54 53 53 53 52 51 50 50 50 49 50 50 50 49
34 34 35 36 36 38 39 42 44 45 45 45 44 43 43 41 40 44 49 55 54 54 54 54 55 54 50 50 49 46 51 53 52 50 50 49 49 50 49 51 51 52 50
31 33 33 34 34 35 35 35 36 37 38 37 37 38 37 37 40 42 46 49 46 45 46 49 45 41 44 40 38 37 36 37 40 48 49 47 46 40 40 43 45 46 44
30 30 31 33 32 33 32 32 32 32 32 33 33 34 34 34 35 36 37 37 35 34 35 36 37 37 38 39 36 35 32 32 33 34 36 32 32 32 35 38 39 37 33
27 28 29 31 32 31 31 31 31 31 30 30 31 32 32 33 34 34 33 32 31 31 32 33 34 35 37 36 34 31 29 29 32 32 31 30 30 31 33 35 35 35 33
26 27 28 29 29 30 31 31 31 30 30 30 29 30 31 31 33 33 32 31 29 29 30 31 32 34 35 33 32 30 27 27 28 29 28 28 26 27 27 29 30 33 30
25 25 26 27 27 28 29 30 30 29 29 28 28 28 29 30 31 32 31 30 29 28 28 29 30 31 31 31 30 29 28 29 29 28 28 28 25 23 24 24 24 26 26
23 23 24 25 26 26 27 27 28 27 26 26 26 27 28 29 30 31 30 30 30 27 27 28 30 30 30 30 29 30 29 28 27 26 25 25 26 20 19 19 19 19 19
21 21 22 22 23 24 24 25 24 25 25 25 25 25 26 28 29 30 29 29 28 27 27 27 27 27 27 27 28 28 27 26 25 23 22 20 20 24 23 20 19 17 17
23 20 20 21 21 22 22 23 23 23 23 23 24 24 26 27 27 28 28 28 28 27 26 25 24 24 23 24 23 23 23 24 23 21 19 18 19 19 17 20 20 12 8
25 25 21 20 20 21 23 23 23 25 25 23 24 25 25 26 28 29 27 26 26 26 25 24 22 21 20 20 19 20 20 20 19 19 18 18 18 17 17 17 13 11 8
23 24 25 22 19 19 19 21 23 24 25 25 26 26 27 27 26 27 26 26 25 23 20 19 18 18 18 18 18 18 18 18 18 18 17 17 15 14 14 14 14 13 9
23 24 24 24 24 19 18 17 17 19 22 22 24 24 26 22 22 22 21 20 19 18 17 17 17 16 16 16 16 16 16 17 17 16 15 15 16 15 14 12 11 12 11
23 24 22 23 23 22 21 20 18 15 15 15 17 21 21 20 19 19 18 17 15 16 16 15 15 16 16 15 14 14 13 12 12 12 12 11 12 12 10 10 8 8 10
21 22 22 22 22 21 18 15 12 11 11 12 13 13 15 17 17 16 15 14 13 13 13 13 13 13 12 12 11 10 10 10 9 9 10 9 8 8 9 9 8 7 7
19 20 18 18 18 19 17 12 9 9 10 11 11 10 11 10 10 10 10 11 10 10 10 10 10 10 10 9 7 7 6 6 6 7 7 7 8 10 8 8 8 6 6
17 15 13 13 15 15 17 11 7 9 11 11 11 10 10 8 8 7 8 8 9 9 8 8 7 8 8 7 5 3 2 2 2 2 4 6 5 7 9 6 6 7 6
16 16 16 15 15 14 14 14 10 9 11 11 11 10 9 8 7 5 5 4 5 5 5 4 5 6 3 2 0 -1 -2 -1 -2 -2 0 2 4 2 5 5 5 6 6
15 12 14 16 14 9 12 13 12 12 11 8 8 8 7 6 6 7 6 5 2 1 0 1 2 2 -0 -2 -3 -3 -2 -3 -4 -4 -3 -1 2 3 3 5 4 2 3
13 14 15 13 11 11 10 10 12 11 10 9 8 6 5 3 3 5 4 3 4 2 -0 -0 1 1 -2 -4 -3 -1 -2 -4 -5 -5 -5 -2 1 2 1 1 2 3 3
9 12 12 11 11 11 10 10 10 10 10 9 9 8 8 6 2 1 2 1 3 3 2 1 1 0 -3 -4 -3 -2 -4 -5 -6 -5 -5 -2 -1 -2 -0 1 0 1 0
9 9 9 10 9 9 9 8 8 8 8 7 7 6 6 5 3 -0 -3 0 3 4 3 0 1 -0 -2 -2 -2 -5 -6 -6 -6 -6 -7 -4 -2 -3 -3 -1 -1 -1 1

GFSGL_sfc_30mbdewp_111.txt.gz
Dewpoint
40 42 46 55 55 61 60 59 59 59 58 58 58 57 57 57 57 57 56 57 57 58 58 57 56 56 55 55 55 55 53 52 49 51 51 52 53 53 53 53 53 53 53
38 40 42 44 48 59 59 59 59 59 58 58 57 57 57 56 57 56 56 57 57 57 57 57 56 56 55 55 55 54 54 54 52 50 51 51 52 54 54 54 55 54 54
37 38 39 41 42 45 51 58 58 58 57 57 57 56 56 56 56 56 56 56 57 57 57 57 56 56 55 55 54 54 53 54 53 51 49 51 51 52 53 53 53 54 54
35 36 37 37 39 40 41 45 58 58 57 57 56 56 56 56 56 56 56 56 56 57 57 57 57 56 55 55 55 54 54 54 53 53 52 52 52 52 52 50 50 51 49
32 33 35 36 36 36 36 37 40 56 57 57 56 56 56 56 55 56 56 56 56 56 56 56 57 57 56 56 55 55 54 54 53 52 52 51 51 51 50 51 50 50 47
31 31 33 34 34 34 34 34 34 35 39 46 49 49 48 43 42 47 52 55 55 55 55 55 56 55 55 54 54 55 55 53 53 52 52 51 50 51 51 51 51 50 48
29 30 31 32 33 33 33 33 33 33 33 34 35 38 37 37 39 44 47 51 51 49 49 53 49 46 47 44 40 39 38 39 43 52 52 51 50 48 47 48 49 49 46
27 28 29 30 31 31 31 31 32 32 32 31 32 33 34 34 35 37 40 38 36 35 36 38 41 41 41 41 38 35 33 33 33 35 38 34 34 35 39 41 43 37 33
25 26 27 28 29 29 30 30 30 30 31 31 31 31 31 32 34 34 34 33 32 31 32 34 35 37 37 37 35 31 29 29 31 31 31 31 31 32 34 37 37 37 33
24 25 25 26 27 28 28 29 29 29 29 30 29 30 31 31 32 33 32 31 30 30 30 31 33 34 34 34 32 30 28 28 28 28 27 27 27 28 28 29 32 34 30
23 23 24 24 25 26 27 28 28 28 28 28 28 28 29 30 31 32 32 31 30 28 29 29 30 31 31 31 31 30 29 29 29 28 27 25 24 25 25 25 26 29 28
21 22 22 23 23 24 25 25 26 26 26 26 27 27 28 29 30 30 29 29 29 27 27 28 30 30 30 29 29 29 29 28 27 26 25 22 20 20 20 20 21 21 21
20 20 21 22 22 23 23 23 23 24 24 25 26 25 26 28 28 29 29 28 27 25 26 27 27 27 27 27 27 27 27 26 25 23 22 22 22 24 22 18 17 16 17
23 20 19 20 21 22 22 23 23 23 23 23 24 25 26 26 27 27 27 26 26 25 24 24 24 24 23 23 23 23 23 23 22 20 19 20 20 20 19 19 12 10 9
24 24 21 19 19 20 22 24 23 25 26 24 24 26 24 25 27 28 26 25 24 24 22 21 21 20 20 20 20 20 21 21 20 20 19 18 17 16 16 18 15 14 10
22 23 23 21 19 19 19 19 22 22 24 25 27 25 25 25 25 24 24 23 23 22 19 18 17 17 17 17 17 17 18 18 19 19 18 17 16 16 16 17 17 15 12
22 22 22 22 22 18 17 17 15 16 19 21 23 23 22 22 22 21 21 20 18 17 16 16 16 16 16 16 16 15 15 15 15 15 15 16 16 15 14 14 15 13 11
21 21 20 20 19 19 17 13 12 13 13 13 15 19 19 19 19 19 17 15 14 14 14 14 13 14 14 13 12 12 11 11 11 12 11 11 12 12 10 10 10 10 10
19 19 18 18 18 16 12 9 9 10 11 10 10 11 11 14 14 14 13 11 11 11 11 11 11 11 10 9 8 8 8 8 8 8 9 9 9 10 9 9 7 6 6
16 15 13 14 16 15 10 7 10 11 10 9 8 8 8 8 7 7 7 7 7 8 8 8 9 8 8 6 5 5 5 5 6 6 6 7 8 8 8 7 6 5 5
15 15 13 15 15 15 10 7 9 10 9 9 8 7 7 6 6 6 6 6 5 5 5 6 5 5 5 3 2 0 -0 0 1 2 3 3 4 6 6 6 6 6 5
13 14 16 13 13 13 14 10 10 10 10 9 8 7 5 4 4 3 3 2 2 3 3 3 2 1 -1 -1 -2 -3 -4 -4 -3 -2 0 2 2 3 4 3 5 5 5
14 13 13 14 11 12 12 12 11 11 8 8 7 6 5 5 5 4 2 -0 -1 -0 1 0 -1 -3 -4 -5 -4 -4 -5 -5 -5 -6 -2 -1 2 2 2 4 3 2 3
12 12 13 12 11 10 9 10 10 10 9 6 5 5 4 4 4 3 1 1 0 -2 -2 -1 -2 -3 -4 -3 -3 -2 -4 -6 -6 -6 -5 -2 -1 0 -1 -0 1 1 1
9 10 10 10 10 9 9 8 8 8 8 8 7 5 3 1 2 2 1 1 2 1 0 -1 -1 -3 -4 -3 -3 -5 -6 -6 -7 -7 -5 -3 -3 -3 -1 -2 -1 -0 -0
9 9 9 9 8 8 8 7 7 7 7 6 6 5 5 4 1 -1 -2 1 2 1 0 -0 -1 -2 -3 -3 -4 -6 -6 -6 -7 -8 -7 -4 -3 -3 -2 -2 -2 -1 -0

GFSGL_sfc_30mbdewp_114.txt.gz
Dewpoint
38 40 42 43 45 52 53 61 60 59 59 59 59 59 59 58 59 58 58 58 57 57 57 57 57 57 57 56 55 55 54 52 50 52 53 54 53 54 53 54 54 53 53
36 38 39 40 42 43 46 48 60 59 59 59 59 58 58 58 57 57 56 56 56 55 55 57 57 57 56 55 55 54 53 52 51 49 52 52 53 53 53 53 53 53 54
34 36 36 37 38 39 40 42 46 58 59 58 58 57 57 57 56 56 56 56 56 56 57 57 57 57 56 55 55 54 54 53 53 52 52 53 53 53 54 54 55 54 46
33 34 34 35 36 37 38 39 40 43 51 57 57 57 57 57 56 56 56 56 56 56 57 57 57 56 55 55 55 54 54 54 53 53 52 52 52 53 52 52 52 52 44
31 32 33 34 34 35 36 36 37 37 37 40 51 57 57 56 55 56 56 55 55 55 56 57 57 57 56 55 55 54 54 53 53 52 52 52 51 51 52 52 52 50 44
29 29 31 32 32 33 33 34 35 35 35 35 35 37 38 39 37 43 54 55 55 55 55 55 56 56 55 54 54 55 55 53 53 52 52 51 51 51 52 52 51 48 45
27 28 29 30 30 31 31 32 32 33 34 34 34 34 33 34 35 37 42 53 53 50 51 53 52 50 52 47 43 41 40 42 47 53 52 52 52 52 52 51 51 50 47
25 26 27 28 29 29 29 30 30 31 31 32 32 33 33 32 33 34 35 37 37 36 37 40 44 43 43 43 41 38 34 34 35 38 42 40 38 40 47 47 48 38 33
23 24 25 26 27 27 28 28 29 29 29 29 30 30 31 31 33 33 32 32 31 31 32 35 37 38 38 38 37 34 31 30 32 32 32 32 32 34 36 41 40 40 34
22 23 23 25 25 26 26 27 28 29 28 28 28 29 29 29 31 32 32 32 30 30 30 31 33 33 34 34 33 32 30 28 28 28 28 28 28 28 29 32 36 37 31
22 23 23 23 24 24 25 26 27 27 27 27 27 28 28 29 29 30 30 29 29 28 28 29 30 31 31 31 31 30 29 29 28 26 25 25 25 25 25 25 26 31 31
21 21 22 23 23 24 23 23 24 25 25 26 25 26 27 27 28 28 28 27 27 25 25 26 28 29 29 29 29 29 28 28 26 24 22 21 21 22 22 23 23 23 24
22 20 20 21 23 23 23 23 24 23 24 24 24 25 25 26 27 27 27 27 25 24 25 26 25 25 25 25 25 25 26 25 24 22 21 21 22 23 22 20 21 21 21
22 21 19 20 20 21 21 22 23 23 23 22 23 23 24 25 25 25 25 24 24 23 24 23 24 23 23 22 22 23 23 22 21 21 20 22 23 21 19 20 17 15 16
21 21 21 19 19 19 20 22 22 24 25 23 23 23 23 23 25 25 25 24 23 22 21 20 20 19 19 19 19 19 20 21 20 21 20 20 20 19 19 20 18 16 15
21 21 22 22 18 18 17 16 19 21 21 22 22 23 24 23 22 22 21 21 20 19 17 17 16 16 16 16 16 16 17 17 19 19 19 19 19 19 18 17 17 15 13
20 21 20 20 20 18 15 13 13 14 16 18 19 19 19 19 20 20 19 18 17 15 14 14 14 14 14 14 14 13 13 14 14 15 16 16 15 15 15 15 15 13 12
17 17 18 18 16 13 9 9 10 11 9 9 11 15 17 17 17 17 15 13 12 12 12 11 11 11 11 10 10 10 10 10 11 11 11 12 13 12 11 11 11 11 10
15 13 13 15 15 11 7 9 9 9 8 7 7 8 8 12 12 12 11 8 9 9 10 9 9 8 8 7 6 7 7 7 7 8 8 9 9 9 9 9 7 6 6
14 13 13 13 14 11 7 9 9 9 7 6 6 6 6 6 5 5 5 5 6 6 7 7 6 5 5 4 3 4 5 5 5 6 6 7 7 8 7 6 6 6 6
12 14 14 13 13 13 8 9 9 8 7 7 6 5 5 5 4 4 4 3 3 4 4 4 2 2 3 1 0 -0 -1 0 1 2 3 4 4 5 6 6 6 6 5
13 13 15 13 11 12 12 10 10 9 8 7 6 5 3 2 2 1 1 0 -0 2 1 -0 -2 -3 -3 -2 -3 -4 -5 -3 -2 -1 1 2 4 4 4 5 4 4 5
12 12 12 12 10 10 10 11 10 9 7 6 5 5 4 3 2 1 -1 -3 -1 -1 -2 -4 -4 -4 -5 -5 -5 -5 -6 -6 -6 -6 -2 0 2 2 2 3 2 3 3
9 10 10 10 9 9 8 8 8 9 8 6 5 4 3 2 2 2 0 -1 -1 -2 -4 -4 -4 -3 -3 -4 -4 -4 -5 -6 -6 -6 -5 -2 0 0 -0 1 2 0 0
7 8 8 8 8 7 7 7 6 5 6 6 6 4 3 2 2 1 -1 -2 -1 -0 -1 -2 -4 -4 -4 -5 -7 -7 -6 -7 -8 -7 -5 -4 -3 -2 -2 -2 -1 -0 -1
7 7 8 7 6 6 6 6 6 5 6 5 4 3 3 3 2 0 -1 -0 1 0 -1 -1 -2 -3 -4 -4 -5 -6 -7 -7 -8 -8 -7 -4 -3 -3 -2 -2 -2 -1 -2

GFSGL_sfc_30mbdewp_117.txt.gz
Dewpoint
37 38 39 41 42 44 47 51 52 60 60 60 61 61 61 60 60 60 60 60 59 59 59 59 58 58 58 58 58 57 56 56 53 53 54 55 56 55 55 55 56 55 54
35 36 37 38 39 40 41 43 46 50 60 60 59 60 60 60 60 59 59 59 58 58 58 58 57 57 57 57 57 56 56 55 54 51 53 54 54 55 55 55 55 55 55
34 34 35 35 36 37 38 40 42 44 47 57 59 59 59 59 58 58 58 58 58 58 57 56 55 55 56 57 56 55 55 54 54 52 52 53 53 54 54 54 54 54 48
31 32 33 33 34 35 36 37 38 40 40 42 44 55 58 58 57 57 58 57 57 57 56 56 55 57 57 56 55 55 54 54 53 52 52 52 52 53 53 52 54 51 46
30 30 31 32 33 33 34 35 36 36 37 38 38 38 39 38 37 39 49 56 56 56 56 56 57 57 57 57 56 55 54 53 53 52 52 52 52 52 52 53 53 49 44
28 28 30 30 30 31 32 32 33 33 34 35 35 35 35 35 35 37 41 50 56 55 55 56 56 56 56 55 54 54 55 54 53 52 51 51 51 52 52 52 52 48 45
26 27 28 29 29 30 30 30 31 31 31 31 32 33 33 33 34 35 38 38 41 47 50 52 55 53 53 49 46 45 44 44 48 53 52 52 52 52 53 52 52 50 49
25 25 26 27 28 29 29 29 30 30 30 29 30 30 30 31 33 34 34 34 33 33 34 36 40 42 43 45 43 40 36 35 37 40 43 43 42 44 52 52 52 46 35
23 24 25 26 26 27 28 29 29 29 29 28 28 28 29 29 32 33 34 33 32 31 31 32 34 35 36 39 38 35 32 30 32 32 32 32 32 33 35 44 44 41 34
23 24 24 25 25 25 26 27 29 29 29 29 29 28 28 29 30 31 31 32 31 31 31 30 31 32 33 34 34 33 30 29 29 29 28 28 28 28 29 32 37 41 34
22 23 24 25 25 26 26 27 27 28 28 28 28 28 28 28 29 28 28 27 27 26 26 27 29 30 30 31 31 30 28 27 26 26 25 25 25 24 24 25 27 33 33
21 21 22 23 24 24 25 26 26 26 26 25 26 26 27 28 27 27 27 26 26 25 24 25 27 27 27 27 27 28 28 26 25 23 22 22 22 22 23 24 24 25 25
21 19 20 21 21 22 23 23 23 24 23 23 24 24 24 25 27 26 26 25 25 25 25 25 25 25 25 25 25 25 25 24 23 21 20 21 22 23 24 24 24 25 24
20 20 18 18 18 19 20 20 21 23 22 21 21 22 22 23 24 25 26 26 25 25 24 24 24 24 23 23 23 24 24 24 23 21 21 21 23 22 21 23 21 22 21
19 19 20 18 18 16 18 20 20 23 23 21 21 22 22 21 22 22 23 23 23 21 23 22 21 21 20 20 20 21 22 23 22 22 22 21 22 21 21 21 21 21 19
17 17 19 19 18 16 14 14 18 18 18 19 20 21 21 21 20 20 20 19 18 19 20 19 19 19 18 18 17 17 18 18 20 21 21 21 21 20 19 17 17 17 17
18 18 18 18 17 14 13 13 13 16 14 14 16 17 17 18 18 18 17 16 16 17 16 16 16 16 15 15 14 14 14 16 18 18 19 19 18 15 14 13 12 11 9
17 15 17 19 18 15 13 14 14 13 12 11 12 13 15 15 16 15 14 15 14 13 13 13 13 12 12 12 11 12 12 13 13 12 14 15 15 14 13 12 12 11 10
17 17 17 18 18 13 14 14 13 12 11 10 10 9 10 11 12 12 12 12 12 11 11 11 11 11 10 10 12 12 12 12 12 12 13 13 13 12 10 10 9 9 7
15 15 15 17 17 16 14 13 12 11 10 9 8 8 9 9 9 9 9 10 10 10 10 9 8 8 9 9 10 11 11 11 11 11 12 12 13 11 10 9 9 7 5
15 15 15 15 15 15 14 13 12 11 10 9 8 7 5 6 6 7 7 7 7 7 8 7 7 7 6 5 5 7 7 8 8 9 10 10 11 10 9 9 8 6 4
13 13 13 13 13 13 13 13 12 11 10 9 8 7 5 7 5 4 4 4 6 5 4 4 2 0 0 0 1 3 3 5 6 6 7 9 9 10 9 8 8 7 6
11 11 10 10 11 11 12 12 12 12 11 10 8 7 7 6 6 5 4 4 4 4 3 3 2 1 0 0 -0 -1 -1 -0 1 3 6 7 7 7 8 7 6 5 5
10 10 8 8 10 9 10 10 11 10 10 10 9 8 7 7 6 6 5 5 4 3 3 2 1 0 -1 -1 -1 -1 -2 -2 -1 1 2 5 5 5 6 5 5 5 4
8 8 7 7 8 8 8 8 9 9 9 9 9 8 7 7 6 6 5 4 4 4 3 2 2 -0 -2 -3 -3 -3 -3 -4 -3 -3 1 3 3 3 3 3 3 3 3
8 7 7 7 7 7 7 7 7 8 8 8 8 8 8 7 6 6 5 4 4 4 3 3 2 0 -1 -1 -2 -4 -4 -4 -5 -5 -0 1 1 1 1 1 1 2 1

GFSGL_sfc_30mbdewp_120.txt.gz
Dewpoint
37 38 39 40 42 43 44 46 48 52 53 62 62 62 62 62 61 61 61 61 61 61 61 61 60 61 60 60 59 58 58 57 54 55 55 56 57 57 57 57 57 56 54
35 36 36 37 38 39 40 41 44 47 49 55 61 61 61 61 61 60 60 60 60 60 60 60 60 60 59 59 58 58 57 57 56 54 54 55 55 57 56 56 56 55 55
34 34 35 35 35 36 37 38 40 41 43 45 46 50 58 60 60 60 60 59 59 60 60 59 59 59 58 58 58 56 56 56 56 55 53 54 55 56 56 56 56 56 52
33 34 33 33 34 35 35 36 37 38 39 40 40 40 40 40 40 42 48 58 59 59 59 59 59 58 57 57 56 56 56 56 55 54 53 53 54 54 55 54 54 51 48
31 32 33 32 33 33 34 34 34 34 35 36 36 36 36 36 35 36 40 46 55 58 58 58 58 57 56 56 57 56 56 55 54 53 52 52 52 52 52 53 52 50 48
29 30 31 32 31 31 32 32 32 32 33 33 33 33 33 33 34 35 38 46 44 51 55 57 57 56 57 55 55 56 56 55 54 53 52 51 52 52 52 52 51 47 44
27 28 29 29 30 31 31 31 31 31 31 31 31 32 32 31 33 34 35 37 36 36 36 39 42 48 50 55 49 46 44 44 48 54 52 52 52 52 53 52 52 50 49
27 27 28 28 28 29 30 31 31 31 31 30 30 30 30 30 31 32 34 35 33 33 33 33 35 36 36 41 45 40 36 34 36 39 42 42 42 47 53 53 53 47 38
26 26 27 28 28 28 29 30 31 30 31 30 30 30 30 29 30 30 31 32 32 31 31 32 33 33 34 37 38 35 31 30 32 32 31 31 31 32 35 49 48 44 37
25 26 26 27 27 27 28 29 30 30 30 30 30 30 29 29 29 28 29 28 27 26 28 29 30 31 32 33 33 33 30 28 29 29 28 27 27 27 28 30 38 48 37
24 25 26 26 27 28 28 29 29 29 29 29 29 29 28 29 29 28 27 29 29 27 25 26 27 29 30 30 30 28 27 27 27 26 26 25 25 25 25 26 27 32 34
22 21 22 23 26 27 27 28 28 28 27 27 27 27 27 28 27 27 27 26 27 28 26 27 27 28 27 27 27 27 27 26 25 24 22 22 22 23 24 25 26 26 27
20 20 19 19 20 21 23 24 24 25 25 24 24 25 25 26 27 25 26 26 26 27 26 26 26 26 26 26 26 26 26 25 24 22 21 21 22 24 25 25 26 27 26
16 16 17 18 17 18 18 19 20 21 21 21 22 22 23 23 23 24 25 27 26 27 27 27 26 26 25 25 26 27 27 26 25 23 23 24 25 24 23 25 24 24 23
14 15 16 16 15 14 16 18 17 19 19 20 20 21 20 20 21 21 21 22 24 24 27 26 25 24 23 24 24 24 24 25 24 25 25 24 24 23 24 25 25 25 23
13 14 16 16 16 14 13 13 18 16 16 16 16 18 20 18 19 19 18 18 19 21 23 22 22 22 21 22 22 22 22 22 23 23 23 23 22 22 22 22 23 23 22
17 15 15 16 16 15 15 15 15 16 16 14 13 14 15 16 16 17 17 17 16 19 20 20 19 19 18 17 17 18 18 18 20 21 21 21 21 21 20 18 17 17 18
17 17 17 17 17 17 16 16 16 15 14 14 14 12 12 13 14 14 15 17 16 15 15 15 15 15 13 13 14 15 16 16 16 15 17 18 17 16 16 15 15 15 12
15 15 16 16 16 17 16 15 15 14 13 13 12 11 11 10 12 12 13 14 13 13 12 12 13 13 13 13 15 15 15 15 15 16 16 16 16 14 13 12 11 11 9
13 13 13 14 14 14 14 13 12 12 11 11 11 9 8 10 10 10 11 12 11 10 11 10 10 11 11 11 13 13 13 14 13 13 15 15 15 13 12 11 11 9 7
11 11 11 11 11 11 12 12 11 11 10 10 10 9 8 8 8 8 7 8 8 9 9 8 9 9 8 8 8 10 11 12 11 12 13 12 13 12 11 11 9 7 5
9 9 8 9 8 10 10 9 11 11 10 9 9 9 9 9 7 7 6 7 7 7 6 7 7 5 4 5 5 7 7 9 9 10 10 10 10 10 10 9 10 9 6
7 8 7 6 8 7 8 8 9 11 11 10 9 8 8 8 8 7 7 7 6 6 5 5 5 4 4 5 4 3 3 4 6 7 9 9 8 9 9 8 7 7 6
6 7 6 6 7 6 8 8 8 8 9 9 11 9 9 8 8 7 6 6 6 6 5 4 3 1 1 2 3 1 0 1 3 5 6 7 6 6 7 6 6 6 6
8 7 6 6 6 7 7 6 6 8 8 9 8 9 8 8 7 7 7 6 4 4 4 3 3 2 0 -0 -0 -1 -2 -2 -2 1 4 4 4 4 4 4 5 4 4
7 6 6 6 6 6 6 6 6 6 6 7 7 8 8 7 7 6 6 4 4 3 3 3 2 2 1 0 0 -1 -2 -3 -2 -2 3 3 3 3 3 2 2 3 2

GFSGL_sfc_30mbdewp_123.txt.gz
Dewpoint
37 38 39 41 42 43 43 44 46 49 50 52 58 63 63 63 63 63 62 62 62 62 62 62 61 61 61 61 61 60 59 58 56 56 55 56 57 58 58 59 59 57 57
36 36 37 37 38 38 39 40 42 44 45 45 48 49 55 60 62 61 61 61 61 61 61 58 60 61 61 60 60 59 59 58 57 55 56 56 56 58 58 58 58 58 58
36 35 35 35 35 35 36 36 37 38 39 40 40 41 40 40 41 43 46 57 60 60 61 61 60 61 60 60 60 59 59 58 58 56 55 56 56 57 57 57 57 57 57
34 34 34 34 34 35 35 34 34 35 35 35 36 36 37 36 36 37 40 44 49 55 60 60 60 60 60 59 59 59 58 58 57 56 56 55 54 55 56 55 54 56 49
31 32 33 34 33 33 33 33 33 33 33 34 34 33 34 33 34 35 38 44 47 47 50 58 59 60 59 59 59 58 58 57 56 55 54 54 53 53 52 54 53 51 47
29 30 32 32 33 33 33 32 32 32 32 32 32 32 32 31 33 35 37 38 37 37 38 41 44 49 45 54 56 56 57 56 56 54 54 52 52 53 53 53 53 47 45
28 29 29 31 31 31 32 32 32 31 31 31 31 31 30 30 31 32 34 34 33 32 32 33 36 37 38 39 46 46 42 41 42 52 54 53 53 53 53 53 52 49 49
27 27 28 29 29 30 30 31 31 31 31 30 30 30 30 29 30 31 31 31 30 30 30 30 31 33 34 36 41 38 34 33 33 35 38 37 36 37 48 53 52 49 42
27 27 28 28 28 28 29 30 31 30 31 30 30 29 29 29 29 29 31 29 28 28 28 29 29 30 32 34 36 33 32 31 32 31 31 31 31 31 32 46 48 45 39
27 28 28 29 28 29 30 30 30 30 30 31 30 30 28 28 28 28 29 30 30 29 28 28 29 29 30 30 32 32 31 28 29 29 28 28 28 28 28 29 33 46 40
25 25 27 28 29 29 30 30 30 31 30 30 30 30 30 29 28 27 27 28 28 28 28 27 28 28 28 28 28 28 28 28 27 27 26 26 26 26 27 27 27 30 35
20 21 21 22 25 26 28 28 27 28 28 27 27 27 28 28 25 25 26 27 28 27 27 28 28 27 28 28 28 28 27 27 26 24 23 23 23 24 26 27 27 28 29
16 17 18 17 17 19 20 22 22 23 24 23 24 24 25 25 25 23 24 25 27 28 29 28 28 27 27 28 28 28 28 27 26 24 23 23 24 26 27 27 27 28 27
14 16 16 16 15 14 17 15 17 17 17 19 19 21 22 22 22 23 23 25 24 26 29 29 28 27 27 27 27 27 28 28 27 26 25 26 28 28 27 28 27 26 24
14 14 16 17 16 14 16 18 17 18 16 14 16 18 19 18 19 19 20 21 23 24 26 27 26 25 25 25 26 25 26 27 26 26 26 25 26 25 25 27 27 26 23
15 14 16 16 16 15 15 15 19 18 17 16 14 14 16 15 16 17 18 19 18 22 24 23 23 23 22 22 23 23 22 22 24 24 24 23 23 23 23 24 25 25 23
16 16 15 17 16 16 16 16 16 18 18 19 15 14 13 13 13 14 16 19 18 18 19 19 19 19 18 17 17 18 18 19 19 21 22 22 21 22 22 22 22 22 21
16 16 16 17 17 17 17 17 17 16 16 16 16 13 12 12 13 13 14 15 15 15 14 14 15 15 14 14 16 15 17 19 18 17 18 18 18 18 17 16 16 15 14
14 15 15 16 16 15 16 15 15 14 13 13 13 13 11 11 13 13 13 13 13 12 12 11 12 12 13 15 15 17 17 17 16 19 19 18 18 16 14 14 13 12 10
13 13 12 13 14 13 13 13 12 12 12 12 12 14 8 10 11 11 11 11 10 10 11 9 10 11 12 11 13 14 15 14 15 17 16 17 17 15 14 13 12 11 9
12 11 10 10 10 10 11 11 9 11 11 10 10 15 8 10 10 9 9 9 9 9 9 10 10 9 7 8 9 11 11 13 13 14 13 16 14 15 13 12 11 9 7
8 9 8 8 7 8 8 8 10 10 11 14 11 10 12 12 9 9 10 10 10 8 7 9 9 7 6 6 6 8 8 9 8 10 14 12 12 12 11 11 11 11 7
7 8 8 6 7 8 7 9 9 12 10 9 13 11 11 11 9 10 8 10 8 9 8 6 7 6 5 7 7 5 4 5 6 7 9 12 8 13 11 10 8 9 8
7 8 7 6 8 7 10 10 9 9 8 9 10 13 13 11 9 9 10 10 7 8 8 7 7 2 1 3 3 2 0 1 3 6 7 7 10 10 9 7 7 7 7
9 10 8 8 9 9 9 10 9 9 10 11 12 12 11 11 10 12 10 9 8 6 7 6 5 4 3 1 1 -0 -1 -1 -1 -0 7 6 5 5 5 5 6 5 5
11 10 10 10 10 12 11 10 10 10 8 9 10 12 9 8 8 8 9 6 8 5 5 5 4 2 1 4 2 0 -1 -1 -2 0 3 6 4 5 7 4 3 5 3

GFSGL_sfc_30mbdewp_129.txt.gz
Dewpoint
33 34 36 37 37 37 38 39 40 43 45 45 43 42 44 46 48 53 57 60 62 62 62 61 61 61 61 62 60 57 54 55 53 56 58 59 58 58 59 60 60 59 59
32 32 35 35 35 34 35 36 37 38 40 39 38 39 39 41 43 45 46 49 51 51 55 60 61 61 61 59 57 56 56 57 57 54 57 57 57 58 58 59 59 59 59
32 32 34 34 33 33 33 33 34 34 34 35 35 35 35 36 40 42 43 43 43 43 44 46 45 44 46 47 55 58 59 59 59 58 57 57 58 57 58 58 58 58 59
32 32 32 32 33 32 32 32 32 33 32 32 32 33 34 34 36 38 37 38 38 38 38 41 39 38 38 39 43 46 52 58 59 58 57 57 57 57 57 56 56 57 57
30 30 31 32 32 32 31 31 31 31 32 32 31 31 32 33 33 34 34 33 33 33 33 35 35 34 35 36 39 39 40 46 55 58 57 57 56 55 55 56 55 55 55
27 28 29 30 30 31 31 31 30 30 30 29 29 29 30 31 33 32 31 30 30 30 30 31 31 31 32 34 38 34 34 37 41 43 51 55 55 55 54 54 54 53 50
26 27 28 28 29 29 29 30 30 28 29 28 28 27 28 29 30 31 31 30 29 29 29 29 29 30 30 32 36 34 33 33 32 34 36 34 35 33 34 51 53 53 52
26 26 26 27 27 28 28 28 29 30 28 27 26 26 26 27 29 29 29 29 29 28 28 28 28 28 29 29 31 32 30 30 31 31 31 30 31 31 32 34 37 40 46
26 27 27 26 24 25 26 27 27 28 28 27 26 25 24 25 27 28 28 27 27 27 27 27 27 27 28 29 27 27 27 27 29 30 31 31 30 31 31 33 37 39 42
22 23 27 26 24 21 22 24 25 24 25 25 26 23 22 23 24 24 26 27 27 26 27 28 28 26 27 27 27 27 25 25 26 27 27 28 28 28 28 28 28 31 34
21 20 23 23 24 21 19 19 21 21 20 21 22 21 20 20 21 22 23 25 26 27 27 28 29 28 27 27 27 27 27 28 26 26 26 26 27 28 28 28 28 27 28
19 21 20 22 21 22 19 19 18 18 16 17 18 18 18 18 18 20 22 23 24 26 27 28 28 28 27 25 26 27 27 26 25 24 24 25 25 26 28 29 28 28 28
18 18 19 19 20 21 21 19 18 18 16 15 14 15 15 16 17 18 20 22 23 23 27 25 26 27 27 27 24 24 25 25 25 23 23 24 25 26 26 28 27 28 27
16 17 19 19 18 20 20 20 18 17 16 15 14 14 14 15 16 17 19 21 22 21 25 23 22 23 21 22 24 22 22 23 24 24 24 23 23 24 24 26 24 25 23
18 17 18 20 19 18 20 20 18 19 18 15 14 14 14 15 17 16 18 24 20 21 22 20 19 19 19 18 18 19 19 21 22 22 22 23 23 23 23 24 24 23 23
19 16 18 19 20 18 19 19 21 20 20 20 16 14 13 14 15 14 14 17 17 18 16 15 14 15 17 16 16 18 17 18 20 21 20 21 21 22 22 22 22 21 21
18 15 16 18 18 18 18 17 16 17 20 24 19 16 12 10 15 14 12 12 14 14 15 14 12 13 14 15 16 16 18 19 20 20 20 19 20 17 17 18 20 20 20
16 16 15 14 15 16 15 15 13 13 13 14 20 14 11 10 12 14 11 10 11 12 12 13 12 12 12 12 13 14 15 15 16 18 18 18 19 17 15 15 15 15 17
15 15 11 12 14 13 13 11 11 12 13 13 16 13 10 13 11 13 11 9 9 10 11 11 12 11 9 10 10 11 13 12 11 12 14 15 17 18 13 11 10 11 11
11 14 11 11 12 12 11 9 11 13 12 13 13 15 14 11 11 11 10 8 9 9 7 9 10 10 8 9 9 8 9 9 8 8 9 10 14 16 14 13 10 9 11
8 13 10 11 11 11 10 10 12 11 10 12 11 12 13 15 13 10 12 9 9 8 6 7 8 8 6 7 7 4 4 3 3 5 6 8 10 13 15 13 12 10 10
8 9 12 11 11 10 10 10 12 10 10 11 10 12 12 14 15 13 12 10 8 10 8 7 4 3 2 6 5 -0 -1 -2 -1 1 2 4 8 11 13 10 8 7 7
8 10 12 13 11 12 10 11 11 10 11 9 10 10 11 11 12 13 13 11 8 8 8 6 4 1 -0 2 2 -1 -2 -2 -1 -1 -1 1 3 9 10 10 8 7 7
12 11 12 13 13 13 11 11 11 11 11 10 9 9 9 10 11 10 11 12 9 5 8 4 6 3 0 -0 -1 -1 -2 -1 -3 -2 -1 1 3 7 7 5 8 4 5
12 12 12 13 14 14 14 13 13 12 12 12 11 10 10 9 10 10 10 12 12 7 6 6 7 5 3 1 -1 -2 -3 -3 -4 -2 1 3 4 3 6 4 7 8 3
13 12 11 12 11 11 11 11 11 10 10 11 10 10 11 11 10 11 8 10 10 7 2 7 9 7 2 2 -1 -1 -3 -4 -4 -2 -0 1 1 0 2 2 4 6 2

GFSGL_sfc_30mbdewp_132.txt.gz
Dewpoint
31 32 33 33 35 36 37 37 39 40 41 40 40 41 43 45 53 60 60 61 61 61 61 61 60 61 60 60 61 60 59 56 51 51 54 56 58 59 59 60 60 60 59
31 32 32 32 33 34 35 36 35 35 36 37 38 39 38 40 43 45 47 48 49 49 49 50 48 53 58 56 60 59 58 57 54 52 53 56 58 59 59 59 59 60 60
31 31 31 32 32 32 33 33 34 33 33 33 34 34 35 36 38 39 39 41 42 42 41 40 40 42 42 43 47 50 53 57 56 55 54 56 57 58 58 58 58 59 60
31 31 31 31 31 31 31 31 31 31 31 31 32 32 33 33 34 34 35 34 35 36 37 35 35 36 36 38 42 42 44 47 51 57 57 57 57 57 57 57 56 58 58
27 29 30 31 31 31 30 30 29 29 29 30 29 30 31 32 32 32 32 32 32 32 33 33 33 34 35 37 37 36 38 41 44 48 52 56 56 56 55 56 56 56 57
24 25 26 28 28 29 30 28 28 27 27 27 28 29 29 30 32 32 32 31 31 30 30 31 31 31 32 35 34 33 33 33 36 38 42 41 42 38 38 40 53 55 52
24 23 21 24 25 26 27 28 26 25 25 25 26 27 27 29 30 30 30 30 29 29 28 29 29 29 30 30 33 31 31 32 31 32 32 31 32 31 32 35 40 42 51
24 23 20 18 21 23 23 24 26 25 22 22 23 24 25 26 27 28 28 28 27 28 28 27 27 28 29 29 28 27 27 28 30 31 30 30 30 31 30 31 33 35 39
23 24 22 20 18 18 20 20 22 21 21 19 19 21 21 23 25 25 26 27 27 27 28 29 27 27 28 28 27 27 26 26 28 28 29 29 29 29 29 30 29 31 36
22 23 24 21 20 19 19 18 18 19 19 18 17 17 19 20 23 24 24 25 25 26 27 29 29 26 27 27 27 26 25 25 24 24 25 26 28 29 29 28 27 27 29
21 21 22 23 21 20 19 19 17 16 16 16 16 16 17 19 20 22 23 23 24 25 25 26 28 27 24 24 26 26 26 25 23 23 24 25 25 26 28 29 28 26 25
20 20 20 20 22 20 19 18 17 16 15 14 13 14 17 18 18 20 23 22 23 24 24 25 25 24 25 24 23 23 24 24 23 23 23 23 24 24 25 26 26 27 27
18 20 19 18 20 21 19 19 17 16 15 14 13 13 14 17 18 18 21 22 22 23 23 21 21 20 20 20 20 20 20 21 22 22 22 22 22 22 22 25 24 25 25
16 18 20 19 18 20 20 19 18 17 15 14 12 12 13 15 17 16 20 21 20 18 18 16 17 18 16 16 17 18 18 18 19 19 19 20 20 21 21 22 22 22 21
14 16 18 19 19 18 19 20 20 21 19 16 13 11 13 13 15 15 13 17 17 17 14 13 12 13 14 14 14 15 16 17 18 19 18 18 18 19 20 21 21 20 20
13 15 17 17 18 18 18 15 17 20 23 20 18 15 12 13 12 13 10 10 12 14 12 10 9 10 11 12 12 13 14 15 16 18 18 18 18 18 17 18 20 20 20
17 14 14 15 17 16 14 12 13 14 17 21 18 15 12 11 10 11 9 8 8 10 10 10 9 8 10 10 10 11 11 13 14 14 15 16 17 17 15 15 16 18 18
14 12 11 12 12 9 9 10 11 11 11 12 17 16 13 12 11 11 9 8 7 8 9 9 10 8 8 8 8 8 9 9 8 9 10 11 13 15 14 12 11 13 15
13 12 9 11 11 9 8 10 11 10 11 11 12 13 14 15 14 12 10 6 5 5 6 7 9 8 6 7 5 4 7 5 5 6 7 8 8 12 13 13 10 9 11
8 12 9 10 9 10 8 9 11 9 9 10 9 11 12 13 11 11 8 6 6 5 5 6 8 7 3 6 5 1 1 -1 -0 1 3 5 6 9 12 13 10 9 11
7 10 12 11 11 10 9 9 11 10 8 10 9 9 10 11 13 12 11 9 7 7 5 6 4 2 2 5 2 -1 -3 -6 -4 -2 -0 2 3 6 10 11 8 7 8
9 11 12 12 13 12 11 11 10 11 10 10 9 10 10 9 11 12 12 11 9 8 7 6 4 2 2 3 1 -3 -5 -6 -5 -4 -3 -0 2 4 8 9 7 6 6
12 11 12 13 12 13 12 11 11 11 10 10 10 10 10 9 9 9 10 10 9 7 8 5 3 2 -1 0 -1 -2 -5 -4 -3 -4 -5 -2 1 3 6 7 6 5 4
12 11 11 11 12 11 10 10 10 10 10 9 9 9 9 9 9 9 8 9 9 7 3 5 4 3 1 -1 -2 -3 -2 -3 -4 -4 -2 -1 1 3 5 5 7 5 3
8 7 8 10 8 8 8 8 8 7 7 8 7 7 7 8 9 9 9 9 10 9 6 5 5 5 2 1 -0 -3 -3 -4 -5 -3 -1 1 1 1 2 2 5 5 3
7 7 6 6 5 5 4 3 3 4 5 4 2 3 4 6 6 6 6 6 8 9 8 2 5 6 5 2 -0 -2 -3 -4 -5 -0 -3 -2 -2 -1 1 1 1 2 3

GFSGL_sfc_30mbdewp_135.txt.gz
Dewpoint
31 32 32 31 31 32 32 34 35 38 39 41 40 41 41 41 43 54 55 56 60 60 60 60 59 60 60 60 60 59 58 58 56 56 55 56 57 58 59 60 60 60 60
31 31 31 31 30 30 30 31 34 35 36 36 37 37 37 38 37 38 41 46 47 45 47 51 49 53 58 57 60 59 59 58 57 55 53 54 54 56 57 59 59 60 60
28 30 30 30 30 29 29 30 31 33 33 34 34 34 35 36 36 35 35 35 36 37 37 38 39 41 42 44 48 51 53 57 57 56 54 56 55 57 57 58 58 58 59
24 26 28 29 29 30 29 28 29 31 31 32 32 32 33 33 34 35 34 33 33 33 33 33 35 37 37 40 40 40 43 47 51 53 55 55 56 56 57 56 56 57 57
20 20 24 27 28 28 28 26 27 27 29 30 30 31 31 31 32 33 33 32 32 32 32 32 32 34 35 34 34 33 35 39 43 46 48 51 50 50 47 43 52 56 57
21 18 19 20 22 24 25 25 23 24 24 26 27 28 29 30 31 31 31 31 31 31 30 31 32 32 32 32 32 32 32 31 33 36 38 37 37 35 35 35 38 45 50
21 19 18 19 18 19 20 20 20 19 21 21 24 26 27 28 30 30 30 29 29 29 28 29 29 30 31 31 29 29 29 30 30 31 31 29 30 30 30 32 36 37 40
23 20 19 18 18 16 17 18 19 18 18 19 21 24 25 26 27 28 28 28 28 29 28 26 27 28 29 29 29 27 26 27 29 30 29 29 29 30 30 30 31 32 35
22 23 21 19 18 18 17 17 17 17 17 18 19 21 23 24 24 25 25 26 26 26 28 28 25 26 27 27 27 26 25 24 25 26 28 28 28 30 29 28 27 29 33
21 22 23 21 20 19 19 17 17 16 16 17 18 19 20 23 23 23 24 24 24 24 26 26 27 25 24 25 25 25 23 23 23 23 24 26 26 26 28 28 26 25 27
21 20 21 22 20 20 19 18 18 16 15 15 17 18 18 20 22 21 22 23 23 22 22 22 22 21 22 21 22 23 23 24 24 24 24 24 24 24 25 26 27 25 24
20 20 19 20 21 21 19 18 17 16 14 14 14 16 19 17 18 19 20 19 20 20 19 20 20 18 18 19 20 20 20 21 22 21 21 21 21 21 21 23 23 25 26
18 19 19 19 19 20 20 19 17 17 15 13 12 14 16 18 15 15 16 17 16 16 16 15 15 15 15 15 17 17 17 17 18 17 17 17 17 19 19 21 22 21 22
15 17 17 18 17 17 19 19 19 19 17 15 12 12 13 15 14 13 14 15 15 13 12 11 11 12 12 12 13 14 15 15 16 15 15 16 16 17 16 18 20 20 20
13 15 16 17 17 15 13 16 18 21 19 17 15 13 13 13 13 11 9 11 11 13 9 7 6 7 8 8 9 10 12 12 12 14 15 15 16 17 16 16 17 19 19
13 13 16 17 15 11 12 13 15 17 18 16 14 13 13 12 11 10 8 7 6 8 6 7 5 5 7 7 7 7 9 9 9 11 12 13 14 15 16 15 15 16 17
13 12 14 12 10 11 12 11 9 12 14 16 14 13 12 11 11 11 8 6 6 5 4 6 6 4 6 6 6 6 6 7 7 6 9 9 10 11 14 14 12 12 14
11 10 11 10 8 8 9 10 7 9 9 9 12 12 13 12 12 12 11 6 4 5 6 5 7 5 4 5 5 3 3 1 1 2 4 5 7 8 11 12 11 10 11
12 10 9 9 9 7 7 10 9 7 9 8 8 9 11 14 14 14 12 6 5 4 5 5 6 5 2 3 3 -0 -2 -4 -4 -3 -0 2 3 5 7 11 10 8 10
8 10 11 10 10 9 8 8 10 10 8 9 8 8 9 10 10 10 9 7 6 6 4 4 5 5 1 2 2 -2 -3 -6 -5 -5 -4 -2 1 3 6 9 9 7 8
8 10 11 11 11 12 11 11 11 10 10 9 9 7 8 9 9 11 11 9 8 7 6 5 4 3 0 1 2 -2 -6 -8 -6 -6 -5 -3 -1 1 5 7 8 7 7
12 12 12 12 13 12 11 11 10 10 9 8 8 9 9 7 7 9 9 9 9 8 7 6 5 4 2 1 1 -3 -6 -7 -6 -5 -7 -5 -2 1 4 5 6 4 4
11 9 10 11 10 9 7 7 7 6 6 6 6 6 5 6 6 7 7 7 6 7 7 6 5 4 2 -1 -1 -1 -4 -4 -4 -5 -6 -5 -2 1 2 3 6 5 3
7 8 9 7 6 6 5 4 4 4 4 4 2 2 2 4 5 5 5 6 6 5 4 4 4 4 3 1 -3 -3 -3 -3 -4 -5 -4 -3 -1 1 2 2 3 5 3
6 4 4 4 2 1 1 0 0 0 1 -0 -2 -1 0 1 4 3 1 2 2 3 6 6 4 4 5 4 1 -0 -3 -3 -5 -5 -4 -3 -1 -1 -0 1 0 2 2
3 2 1 0 -2 -2 -3 -4 -4 -3 -5 -5 -5 -4 -3 -1 -0 -3 -3 -3 -4 -1 2 6 5 3 4 5 3 1 -1 -3 -5 -3 -4 -5 -6 -3 -4 -1 0 0 2

GFSGL_sfc_30mbdewp_138.txt.gz
Dewpoint
27 29 30 29 31 29 28 29 31 32 33 36 39 40 40 41 42 51 53 54 54 53 48 51 58 60 60 60 59 59 58 57 55 56 56 56 56 57 58 59 59 59 59
23 26 28 28 29 27 27 26 28 30 31 33 35 36 37 38 38 41 41 41 40 40 40 42 41 45 52 55 60 59 59 59 57 56 55 55 56 56 56 57 58 59 60
21 22 24 25 25 26 24 25 26 27 29 31 32 33 35 36 37 37 36 36 35 35 34 35 35 36 37 44 45 49 52 55 58 57 56 54 54 55 55 57 57 58 59
19 19 21 23 24 24 24 23 23 26 26 29 29 31 32 33 34 34 35 35 34 34 34 34 33 33 33 35 36 37 41 47 48 51 56 55 55 56 56 54 55 57 57
19 18 19 20 22 22 22 22 22 22 25 28 28 28 30 30 31 31 31 32 32 32 32 32 33 34 33 33 32 32 34 38 41 43 43 45 40 39 37 39 44 44 50
19 18 18 19 17 20 20 21 20 21 23 24 27 27 27 29 31 31 30 28 29 29 29 30 30 31 32 32 32 32 31 30 33 36 34 33 32 31 33 33 37 40 45
21 19 19 18 18 17 16 17 19 19 20 22 23 25 25 26 28 28 28 28 27 26 27 27 27 29 29 30 30 29 29 30 30 31 30 29 30 29 30 31 32 33 36
21 20 19 18 18 17 17 16 17 18 19 19 21 22 24 25 26 25 25 26 25 27 26 26 26 26 28 28 27 26 25 26 28 29 28 28 29 30 28 29 30 31 33
21 21 21 19 18 18 17 17 16 17 18 18 18 20 21 24 24 23 23 24 23 23 24 25 25 24 25 25 24 24 23 23 26 27 27 27 27 27 28 27 25 28 31
20 21 22 21 20 18 18 17 16 15 17 18 17 17 19 20 20 20 21 21 20 20 20 21 21 22 22 22 22 21 21 22 24 24 24 23 24 24 24 26 26 24 25
20 20 20 21 20 20 18 18 16 15 15 16 17 18 15 16 17 17 17 17 17 17 17 18 19 18 19 19 20 20 20 21 21 21 21 20 21 21 22 22 24 25 24
19 19 18 18 20 20 20 19 18 16 14 14 15 17 18 15 13 13 14 13 14 14 14 15 15 15 15 16 17 16 16 17 17 17 17 17 17 17 18 20 22 21 25
17 16 17 16 15 17 18 18 20 18 15 14 14 14 16 15 13 12 11 11 11 11 11 10 10 9 9 11 12 13 13 13 14 14 14 14 16 17 17 17 19 20 21
14 15 14 14 11 11 16 17 19 18 15 15 13 13 14 14 13 12 12 10 10 9 8 6 7 8 6 7 8 9 10 10 10 11 12 13 15 16 16 16 16 17 18
12 13 14 11 10 12 13 14 15 18 15 15 14 13 14 15 13 11 9 10 8 8 6 4 3 4 5 5 5 6 7 6 6 8 9 10 11 12 14 16 15 15 16
11 12 12 11 11 11 11 8 10 12 12 12 11 12 12 12 12 11 9 7 7 5 3 3 2 2 3 4 4 4 4 3 3 4 6 7 8 9 11 14 14 13 13
13 12 11 10 10 10 11 8 5 8 11 10 10 8 9 10 10 10 9 8 8 5 3 3 2 1 2 3 2 2 1 -0 -2 -2 1 4 5 6 8 11 12 11 10
11 10 10 11 9 8 8 9 7 6 6 7 9 11 11 9 7 7 10 9 6 6 5 4 4 4 2 2 1 -0 -3 -5 -5 -5 -3 -2 2 4 5 7 9 9 9
12 12 10 9 9 9 8 7 8 9 8 8 8 9 9 12 10 10 12 8 7 7 6 5 4 4 2 1 1 -2 -5 -6 -6 -6 -6 -5 -3 1 3 5 8 7 7
8 10 10 10 10 11 11 11 11 10 9 9 8 8 8 9 8 8 8 7 8 7 7 7 5 5 3 1 0 -2 -4 -5 -4 -5 -5 -4 -4 -1 2 4 6 6 7
10 11 11 12 12 11 10 10 10 9 8 7 6 6 7 7 6 7 7 8 7 7 8 8 6 4 3 2 1 -1 -3 -6 -6 -5 -5 -4 -4 -3 1 3 5 6 6
11 10 11 11 10 8 7 8 6 5 5 4 4 5 3 2 3 3 4 4 5 5 6 6 7 7 5 4 2 -0 -2 -4 -5 -5 -6 -5 -3 -1 1 2 3 4 5
8 8 9 7 7 6 2 2 2 2 2 -0 -1 -0 -0 -0 1 3 2 2 2 3 4 4 4 5 5 3 -0 -0 -0 -1 -3 -5 -6 -6 -4 -1 -0 1 2 2 3
6 5 5 3 1 -0 -2 -2 -2 -1 -1 -5 -6 -5 -4 -2 -1 -1 -3 -2 -2 -3 -2 0 4 3 4 3 1 -1 -1 -2 -3 -4 -6 -5 -4 -2 -1 -0 0 1 2
3 2 0 -1 -3 -5 -5 -5 -6 -9 -9 -9 -8 -8 -7 -5 -2 -7 -7 -5 -6 -7 -6 -3 0 4 5 3 3 1 -0 -1 -3 -6 -4 -4 -4 -5 -4 -4 -2 -0 1
1 -1 -4 -5 -6 -5 -7 -8 -10 -11 -10 -10 -11 -11 -10 -6 -7 -10 -9 -8 -9 -9 -7 -5 -3 -2 4 5 3 2 -1 -1 -3 -6 -5 -4 -5 -5 -4 -4 -2 -1 -0